Wetterdaten: Donnerstag, 05.10.2023
Datum Zeit Temp. Aussen Temp. o. S. Temp +5cm Feuchte Auss Luftdruck Regen Sonnenschein Regendauer Solar Windben Empfang
05.10.2023 00:00 14,2 C 13,3 C 10,0 C 86 % 1025,4 hPa 0,0 l/m 0 min 0 min 0 W/m 12,9 km/h (3 Bft) 100,00 %
05.10.2023 00:02 14,2 C 13,3 C 10,0 C 86 % 1025,4 hPa 0,0 l/m 0 min 0 min 0 W/m 6,4 km/h (2 Bft) 100,00 %
05.10.2023 00:04 14,2 C 13,3 C 10,0 C 86 % 1025,4 hPa 0,0 l/m 0 min 0 min 0 W/m 6,4 km/h (2 Bft) 95,83 %
05.10.2023 00:10 14,1 C 13,3 C 10,0 C 86 % 1025,4 hPa 0,0 l/m 0 min 0 min 0 W/m 6,4 km/h (2 Bft) 99,24 %
05.10.2023 00:12 14,1 C 13,3 C 10,0 C 86 % 1025,3 hPa 0,0 l/m 0 min 0 min 0 W/m 3,2 km/h (1 Bft) 100,00 %
05.10.2023 00:16 14,1 C 13,3 C 10,0 C 86 % 1025,3 hPa 0,0 l/m 0 min 0 min 0 W/m 6,4 km/h (2 Bft) 100,00 %
05.10.2023 00:18 14,0 C 12,8 C 10,0 C 86 % 1025,3 hPa 0,0 l/m 0 min 0 min 0 W/m 6,4 km/h (2 Bft) 95,74 %
05.10.2023 00:20 14,0 C 12,8 C 10,0 C 86 % 1025,2 hPa 0,0 l/m 0 min 0 min 0 W/m 6,4 km/h (2 Bft) 97,87 %
05.10.2023 00:22 13,9 C 12,8 C 10,0 C 86 % 1025,2 hPa 0,0 l/m 0 min 0 min 0 W/m 6,4 km/h (2 Bft) 97,87 %
05.10.2023 00:24 13,9 C 12,8 C 10,0 C 86 % 1025,2 hPa 0,0 l/m 0 min 0 min 0 W/m 3,2 km/h (1 Bft) 97,87 %
05.10.2023 00:26 13,9 C 13,3 C 10,0 C 86 % 1025,2 hPa 0,0 l/m 0 min 0 min 0 W/m 6,4 km/h (2 Bft) 97,87 %
05.10.2023 00:28 13,9 C 13,3 C 10,0 C 86 % 1025,1 hPa 0,0 l/m 0 min 0 min 0 W/m 9,7 km/h (2 Bft) 97,87 %
05.10.2023 00:30 13,9 C 13,3 C 10,0 C 86 % 1025,1 hPa 0,0 l/m 0 min 0 min 0 W/m 6,4 km/h (2 Bft) 97,87 %
05.10.2023 00:32 13,9 C 13,3 C 10,0 C 86 % 1025,2 hPa 0,0 l/m 0 min 0 min 0 W/m 6,4 km/h (2 Bft) 97,87 %
05.10.2023 00:34 13,9 C 13,3 C 10,0 C 86 % 1025,1 hPa 0,0 l/m 0 min 0 min 0 W/m 6,4 km/h (2 Bft) 97,83 %
05.10.2023 00:36 13,9 C 13,3 C 10,0 C 86 % 1025,0 hPa 0,0 l/m 0 min 0 min 0 W/m 6,4 km/h (2 Bft) 97,87 %
05.10.2023 00:38 13,9 C 12,8 C 10,0 C 86 % 1025,0 hPa 0,0 l/m 0 min 0 min 0 W/m 6,4 km/h (2 Bft) 97,87 %
05.10.2023 00:40 13,9 C 12,8 C 10,0 C 86 % 1025,0 hPa 0,0 l/m 0 min 0 min 0 W/m 3,2 km/h (1 Bft) 95,74 %
05.10.2023 00:42 13,8 C 12,8 C 10,0 C 86 % 1025,0 hPa 0,0 l/m 0 min 0 min 0 W/m 12,9 km/h (3 Bft) 97,87 %
05.10.2023 00:44 13,8 C 12,8 C 10,0 C 86 % 1025,0 hPa 0,0 l/m 0 min 0 min 0 W/m 9,7 km/h (2 Bft) 97,87 %
05.10.2023 00:46 13,8 C 12,8 C 10,0 C 86 % 1025,0 hPa 0,0 l/m 0 min 0 min 0 W/m 9,7 km/h (2 Bft) 97,87 %
05.10.2023 00:48 13,8 C 12,8 C 10,0 C 87 % 1024,9 hPa 0,0 l/m 0 min 0 min 0 W/m 9,7 km/h (2 Bft) 100,00 %
05.10.2023 00:50 13,8 C 12,8 C 10,0 C 87 % 1024,9 hPa 0,0 l/m 0 min 0 min 0 W/m 6,4 km/h (2 Bft) 100,00 %
05.10.2023 00:52 13,8 C 12,8 C 10,0 C 87 % 1024,9 hPa 0,0 l/m 0 min 0 min 0 W/m 9,7 km/h (2 Bft) 100,00 %
05.10.2023 00:54 13,8 C 12,8 C 10,0 C 87 % 1024,9 hPa 0,0 l/m 0 min 0 min 0 W/m 6,4 km/h (2 Bft) 100,00 %
05.10.2023 00:56 13,8 C 12,8 C 9,4 C 87 % 1024,9 hPa 0,0 l/m 0 min 0 min 0 W/m 6,4 km/h (2 Bft) 100,00 %
05.10.2023 00:58 13,8 C 12,8 C 9,4 C 86 % 1024,9 hPa 0,0 l/m 0 min 0 min 0 W/m 19,3 km/h (3 Bft) 97,87 %
05.10.2023 01:00 13,8 C 12,8 C 9,4 C 86 % 1024,9 hPa 0,0 l/m 0 min 0 min 0 W/m 6,4 km/h (2 Bft) 100,00 %
05.10.2023 01:02 13,8 C 12,8 C 9,4 C 86 % 1024,8 hPa 0,0 l/m 0 min 0 min 0 W/m 6,4 km/h (2 Bft) 100,00 %
05.10.2023 01:04 13,8 C 12,8 C 9,4 C 86 % 1024,8 hPa 0,0 l/m 0 min 0 min 0 W/m 6,4 km/h (2 Bft) 100,00 %
05.10.2023 01:08 13,7 C 12,8 C 9,4 C 86 % 1024,7 hPa 0,0 l/m 0 min 0 min 0 W/m 9,7 km/h (2 Bft) 100,00 %
05.10.2023 01:09 13,7 C 12,8 C 9,4 C 86 % 1024,7 hPa 0,0 l/m 0 min 0 min 0 W/m 9,7 km/h (2 Bft) 100,00 %
05.10.2023 01:12 13,7 C 12,8 C 9,4 C 86 % 1024,7 hPa 0,0 l/m 0 min 0 min 0 W/m 9,7 km/h (2 Bft) 100,00 %
05.10.2023 01:14 13,7 C 12,8 C 9,4 C 87 % 1024,7 hPa 0,0 l/m 0 min 0 min 0 W/m 6,4 km/h (2 Bft) 100,00 %
05.10.2023 01:16 13,6 C 12,8 C 9,4 C 87 % 1024,7 hPa 0,0 l/m 0 min 0 min 0 W/m 12,9 km/h (3 Bft) 97,14 %
05.10.2023 01:18 13,6 C 12,8 C 9,4 C 87 % 1024,7 hPa 0,0 l/m 0 min 0 min 0 W/m 12,9 km/h (3 Bft) 100,00 %
05.10.2023 01:20 13,6 C 12,8 C 9,4 C 87 % 1024,7 hPa 0,0 l/m 0 min 0 min 0 W/m 12,9 km/h (3 Bft) 100,00 %
05.10.2023 01:22 13,6 C 12,8 C 9,4 C 87 % 1024,7 hPa 0,0 l/m 0 min 0 min 0 W/m 9,7 km/h (2 Bft) 100,00 %
05.10.2023 01:24 13,6 C 12,8 C 9,4 C 87 % 1024,7 hPa 0,0 l/m 0 min 0 min 0 W/m 6,4 km/h (2 Bft) 97,87 %
05.10.2023 01:26 13,5 C 12,8 C 9,4 C 87 % 1024,6 hPa 0,0 l/m 0 min 0 min 0 W/m 9,7 km/h (2 Bft) 100,00 %
05.10.2023 01:28 13,5 C 12,8 C 9,4 C 87 % 1024,6 hPa 0,0 l/m 0 min 0 min 0 W/m 6,4 km/h (2 Bft) 97,87 %
05.10.2023 01:30 13,4 C 12,8 C 9,4 C 87 % 1024,6 hPa 0,0 l/m 0 min 0 min 0 W/m 12,9 km/h (3 Bft) 97,83 %
05.10.2023 01:32 13,4 C 12,8 C 9,4 C 87 % 1024,5 hPa 0,0 l/m 0 min 0 min 0 W/m 12,9 km/h (3 Bft) 95,74 %
05.10.2023 01:34 13,4 C 12,8 C 9,4 C 87 % 1024,5 hPa 0,0 l/m 0 min 0 min 0 W/m 6,4 km/h (2 Bft) 91,49 %
05.10.2023 01:36 13,4 C 12,8 C 9,4 C 87 % 1024,5 hPa 0,0 l/m 0 min 0 min 0 W/m 16,1 km/h (3 Bft) 97,87 %
05.10.2023 01:38 13,4 C 12,8 C 9,4 C 87 % 1024,6 hPa 0,0 l/m 0 min 0 min 0 W/m 6,4 km/h (2 Bft) 97,87 %
05.10.2023 01:40 13,4 C 12,8 C 9,4 C 87 % 1024,5 hPa 0,0 l/m 0 min 0 min 0 W/m 9,7 km/h (2 Bft) 93,62 %
05.10.2023 01:42 13,3 C 12,2 C 9,4 C 87 % 1024,5 hPa 0,0 l/m 0 min 0 min 0 W/m 12,9 km/h (3 Bft) 97,87 %
05.10.2023 01:44 13,3 C 12,2 C 9,4 C 87 % 1024,5 hPa 0,0 l/m 0 min 0 min 0 W/m 9,7 km/h (2 Bft) 95,74 %
05.10.2023 01:46 13,3 C 12,2 C 9,4 C 87 % 1024,4 hPa 0,0 l/m 0 min 0 min 0 W/m 12,9 km/h (3 Bft) 93,62 %
05.10.2023 01:48 13,3 C 12,2 C 9,4 C 87 % 1024,4 hPa 0,0 l/m 0 min 0 min 0 W/m 19,3 km/h (3 Bft) 95,65 %
05.10.2023 01:50 13,3 C 12,2 C 9,4 C 87 % 1024,4 hPa 0,0 l/m 0 min 0 min 0 W/m 12,9 km/h (3 Bft) 93,62 %
05.10.2023 01:52 13,3 C 12,8 C 9,4 C 88 % 1024,4 hPa 0,0 l/m 0 min 0 min 0 W/m 12,9 km/h (3 Bft) 95,74 %
05.10.2023 01:54 13,3 C 12,8 C 9,4 C 88 % 1024,4 hPa 0,0 l/m 0 min 0 min 0 W/m 9,7 km/h (2 Bft) 95,74 %
05.10.2023 01:56 13,3 C 12,8 C 9,4 C 88 % 1024,4 hPa 0,0 l/m 0 min 0 min 0 W/m 12,9 km/h (3 Bft) 93,62 %
05.10.2023 01:58 13,3 C 12,8 C 9,4 C 88 % 1024,3 hPa 0,0 l/m 0 min 0 min 0 W/m 9,7 km/h (2 Bft) 95,74 %
05.10.2023 02:00 13,3 C 12,8 C 9,4 C 88 % 1024,3 hPa 0,0 l/m 0 min 0 min 0 W/m 12,9 km/h (3 Bft) 96,15 %
05.10.2023 02:02 13,3 C 12,8 C 9,4 C 88 % 1024,3 hPa 0,0 l/m 0 min 0 min 0 W/m 12,9 km/h (3 Bft) 100,00 %
05.10.2023 02:04 13,2 C 12,8 C 9,4 C 88 % 1024,3 hPa 0,0 l/m 0 min 0 min 0 W/m 9,7 km/h (2 Bft) 93,88 %
05.10.2023 02:06 13,2 C 12,2 C 9,4 C 88 % 1024,3 hPa 0,0 l/m 0 min 0 min 0 W/m 9,7 km/h (2 Bft) 98,31 %
05.10.2023 02:10 13,2 C 12,2 C 9,4 C 88 % 1024,3 hPa 0,0 l/m 0 min 0 min 0 W/m 12,9 km/h (3 Bft) 85,96 %
05.10.2023 02:14 13,2 C 12,2 C 9,4 C 88 % 1024,3 hPa 0,0 l/m 0 min 0 min 0 W/m 6,4 km/h (2 Bft) 95,74 %
05.10.2023 02:16 13,2 C 12,2 C 9,4 C 88 % 1024,3 hPa 0,0 l/m 0 min 0 min 0 W/m 6,4 km/h (2 Bft) 93,62 %
05.10.2023 02:18 13,2 C 12,2 C 9,4 C 88 % 1024,4 hPa 0,0 l/m 0 min 0 min 0 W/m 9,7 km/h (2 Bft) 95,74 %
05.10.2023 02:20 13,2 C 12,2 C 9,4 C 88 % 1024,3 hPa 0,0 l/m 0 min 0 min 0 W/m 16,1 km/h (3 Bft) 93,62 %
05.10.2023 02:22 13,2 C 12,2 C 9,4 C 88 % 1024,3 hPa 0,0 l/m 0 min 0 min 0 W/m 12,9 km/h (3 Bft) 93,62 %
05.10.2023 02:24 13,2 C 12,2 C 9,4 C 88 % 1024,4 hPa 0,0 l/m 0 min 0 min 0 W/m 6,4 km/h (2 Bft) 95,74 %
05.10.2023 02:26 13,2 C 12,2 C 9,4 C 88 % 1024,4 hPa 0,0 l/m 0 min 0 min 0 W/m 9,7 km/h (2 Bft) 97,83 %
05.10.2023 02:28 13,2 C 12,2 C 9,4 C 88 % 1024,3 hPa 0,0 l/m 0 min 0 min 0 W/m 9,7 km/h (2 Bft) 97,87 %
05.10.2023 02:30 13,2 C 12,2 C 9,4 C 88 % 1024,3 hPa 0,0 l/m 0 min 0 min 0 W/m 9,7 km/h (2 Bft) 97,87 %
05.10.2023 02:32 13,2 C 12,2 C 9,4 C 88 % 1024,4 hPa 0,0 l/m 0 min 0 min 0 W/m 6,4 km/h (2 Bft) 97,87 %
05.10.2023 02:34 13,2 C 12,2 C 9,4 C 88 % 1024,4 hPa 0,0 l/m 0 min 0 min 0 W/m 6,4 km/h (2 Bft) 91,49 %
05.10.2023 02:36 13,2 C 12,2 C 9,4 C 88 % 1024,4 hPa 0,0 l/m 0 min 0 min 0 W/m 6,4 km/h (2 Bft) 97,83 %
05.10.2023 02:38 13,2 C 12,2 C 9,4 C 88 % 1024,3 hPa 0,0 l/m 0 min 0 min 0 W/m 3,2 km/h (1 Bft) 100,00 %
05.10.2023 02:40 13,2 C 12,2 C 9,4 C 88 % 1024,3 hPa 0,0 l/m 0 min 0 min 0 W/m 9,7 km/h (2 Bft) 100,00 %
05.10.2023 02:42 13,2 C 12,8 C 9,4 C 88 % 1024,3 hPa 0,0 l/m 0 min 0 min 0 W/m 16,1 km/h (3 Bft) 95,74 %
05.10.2023 02:44 13,2 C 12,2 C 9,4 C 88 % 1024,4 hPa 0,0 l/m 0 min 0 min 0 W/m 12,9 km/h (3 Bft) 100,00 %
05.10.2023 02:46 13,2 C 12,2 C 9,4 C 88 % 1024,4 hPa 0,0 l/m 0 min 0 min 0 W/m 6,4 km/h (2 Bft) 100,00 %
05.10.2023 02:48 13,2 C 12,8 C 9,4 C 88 % 1024,4 hPa 0,0 l/m 0 min 0 min 0 W/m 6,4 km/h (2 Bft) 100,00 %
05.10.2023 02:50 13,2 C 12,8 C 9,4 C 88 % 1024,4 hPa 0,0 l/m 0 min 0 min 0 W/m 12,9 km/h (3 Bft) 97,87 %
05.10.2023 02:52 13,2 C 12,8 C 9,4 C 88 % 1024,4 hPa 0,0 l/m 0 min 0 min 0 W/m 12,9 km/h (3 Bft) 100,00 %
05.10.2023 02:54 13,2 C 12,8 C 9,4 C 88 % 1024,4 hPa 0,0 l/m 0 min 0 min 0 W/m 6,4 km/h (2 Bft) 100,00 %
05.10.2023 02:56 13,2 C 12,8 C 9,4 C 88 % 1024,5 hPa 0,0 l/m 0 min 0 min 0 W/m 9,7 km/h (2 Bft) 97,87 %
05.10.2023 02:58 13,2 C 12,2 C 9,4 C 88 % 1024,5 hPa 0,0 l/m 0 min 0 min 0 W/m 12,9 km/h (3 Bft) 100,00 %
05.10.2023 03:00 13,2 C 12,8 C 9,4 C 88 % 1024,5 hPa 0,0 l/m 0 min 0 min 0 W/m 3,2 km/h (1 Bft) 100,00 %
05.10.2023 03:02 13,2 C 12,8 C 9,4 C 88 % 1024,5 hPa 0,0 l/m 0 min 0 min 0 W/m 6,4 km/h (2 Bft) 100,00 %
05.10.2023 03:04 13,2 C 12,8 C 9,4 C 88 % 1024,6 hPa 0,0 l/m 0 min 0 min 0 W/m 6,4 km/h (2 Bft) 100,00 %
05.10.2023 03:10 13,2 C 12,8 C 9,4 C 88 % 1024,6 hPa 0,0 l/m 0 min 0 min 0 W/m 12,9 km/h (3 Bft) 98,59 %
05.10.2023 03:12 13,2 C 12,8 C 9,4 C 88 % 1024,5 hPa 0,0 l/m 0 min 0 min 0 W/m 6,4 km/h (2 Bft) 100,00 %
05.10.2023 03:14 13,2 C 12,8 C 9,4 C 88 % 1024,4 hPa 0,0 l/m 0 min 0 min 0 W/m 12,9 km/h (3 Bft) 100,00 %
05.10.2023 03:16 13,2 C 12,8 C 9,4 C 88 % 1024,4 hPa 0,0 l/m 0 min 0 min 0 W/m 6,4 km/h (2 Bft) 100,00 %
05.10.2023 03:18 13,2 C 12,8 C 9,4 C 88 % 1024,4 hPa 0,0 l/m 0 min 0 min 0 W/m 6,4 km/h (2 Bft) 97,87 %
05.10.2023 03:20 13,2 C 12,8 C 9,4 C 88 % 1024,4 hPa 0,0 l/m 0 min 0 min 0 W/m 6,4 km/h (2 Bft) 100,00 %
05.10.2023 03:22 13,2 C 12,8 C 9,4 C 88 % 1024,5 hPa 0,0 l/m 0 min 0 min 0 W/m 6,4 km/h (2 Bft) 100,00 %
05.10.2023 03:24 13,2 C 12,8 C 9,4 C 88 % 1024,5 hPa 0,0 l/m 0 min 0 min 0 W/m 12,9 km/h (3 Bft) 100,00 %
05.10.2023 03:26 13,2 C 12,8 C 9,4 C 88 % 1024,5 hPa 0,0 l/m 0 min 0 min 0 W/m 6,4 km/h (2 Bft) 100,00 %
05.10.2023 03:28 13,2 C 12,8 C 9,4 C 88 % 1024,5 hPa 0,0 l/m 0 min 0 min 0 W/m 6,4 km/h (2 Bft) 100,00 %
05.10.2023 03:30 13,2 C 12,8 C 9,4 C 88 % 1024,6 hPa 0,0 l/m 0 min 0 min 0 W/m 12,9 km/h (3 Bft) 100,00 %
05.10.2023 03:32 13,2 C 12,8 C 9,4 C 88 % 1024,5 hPa 0,0 l/m 0 min 0 min 0 W/m 3,2 km/h (1 Bft) 97,87 %
05.10.2023 03:34 13,2 C 12,8 C 9,4 C 88 % 1024,5 hPa 0,0 l/m 0 min 0 min 0 W/m 6,4 km/h (2 Bft) 100,00 %
05.10.2023 03:36 13,2 C 12,8 C 9,4 C 88 % 1024,5 hPa 0,0 l/m 0 min 0 min 0 W/m 3,2 km/h (1 Bft) 97,87 %
05.10.2023 03:38 13,2 C 12,8 C 9,4 C 88 % 1024,6 hPa 0,0 l/m 0 min 0 min 0 W/m 9,7 km/h (2 Bft) 100,00 %
05.10.2023 03:40 13,3 C 12,8 C 9,4 C 88 % 1024,6 hPa 0,0 l/m 0 min 0 min 0 W/m 12,9 km/h (3 Bft) 100,00 %
05.10.2023 03:42 13,3 C 12,8 C 9,4 C 88 % 1024,6 hPa 0,0 l/m 0 min 0 min 0 W/m 6,4 km/h (2 Bft) 70,21 %
05.10.2023 03:44 13,3 C 12,8 C 9,4 C 88 % 1024,6 hPa 0,0 l/m 0 min 0 min 0 W/m 6,4 km/h (2 Bft) 82,93 %
05.10.2023 03:46 13,3 C 12,8 C 9,4 C 88 % 1024,6 hPa 0,0 l/m 0 min 0 min 0 W/m 3,2 km/h (1 Bft) 100,00 %
05.10.2023 03:48 13,3 C 12,8 C 9,4 C 88 % 1024,6 hPa 0,0 l/m 0 min 0 min 0 W/m 6,4 km/h (2 Bft) 100,00 %
05.10.2023 03:50 13,3 C 12,8 C 9,4 C 89 % 1024,6 hPa 0,0 l/m 0 min 0 min 0 W/m 6,4 km/h (2 Bft) 97,87 %
05.10.2023 03:52 13,3 C 12,8 C 9,4 C 89 % 1024,6 hPa 0,0 l/m 0 min 0 min 0 W/m 6,4 km/h (2 Bft) 100,00 %
05.10.2023 03:54 13,3 C 12,8 C 9,4 C 89 % 1024,5 hPa 0,0 l/m 0 min 0 min 0 W/m 6,4 km/h (2 Bft) 97,87 %
05.10.2023 03:56 13,3 C 12,8 C 9,4 C 89 % 1024,4 hPa 0,0 l/m 0 min 0 min 0 W/m 3,2 km/h (1 Bft) 97,87 %
05.10.2023 03:58 13,3 C 12,8 C 9,4 C 89 % 1024,4 hPa 0,0 l/m 0 min 0 min 0 W/m 6,4 km/h (2 Bft) 95,74 %
05.10.2023 04:00 13,3 C 12,8 C 9,4 C 89 % 1024,5 hPa 0,0 l/m 0 min 0 min 0 W/m 12,9 km/h (3 Bft) 97,87 %
05.10.2023 04:02 13,3 C 12,8 C 9,4 C 89 % 1024,5 hPa 0,0 l/m 0 min 0 min 0 W/m 12,9 km/h (3 Bft) 95,74 %
05.10.2023 04:04 13,3 C 12,8 C 9,4 C 89 % 1024,5 hPa 0,0 l/m 0 min 0 min 0 W/m 16,1 km/h (3 Bft) 97,87 %
05.10.2023 04:06 13,3 C 12,8 C 9,4 C 89 % 1024,5 hPa 0,0 l/m 0 min 0 min 0 W/m 12,9 km/h (3 Bft) 94,92 %
05.10.2023 04:08 13,3 C 12,8 C 9,4 C 89 % 1024,4 hPa 0,0 l/m 0 min 0 min 0 W/m 12,9 km/h (3 Bft) 100,00 %
05.10.2023 04:10 13,3 C 12,8 C 9,4 C 89 % 1024,3 hPa 0,0 l/m 0 min 0 min 0 W/m 6,4 km/h (2 Bft) 95,65 %
05.10.2023 04:12 13,3 C 12,8 C 9,4 C 89 % 1024,3 hPa 0,0 l/m 0 min 0 min 0 W/m 6,4 km/h (2 Bft) 91,49 %
05.10.2023 04:14 13,3 C 12,8 C 9,4 C 89 % 1024,3 hPa 0,0 l/m 0 min 0 min 0 W/m 3,2 km/h (1 Bft) 93,62 %
05.10.2023 04:16 13,2 C 12,8 C 9,4 C 88 % 1024,2 hPa 0,0 l/m 0 min 0 min 0 W/m 12,9 km/h (3 Bft) 95,74 %
05.10.2023 04:18 13,3 C 12,2 C 9,4 C 88 % 1024,3 hPa 0,0 l/m 0 min 0 min 0 W/m 9,7 km/h (2 Bft) 95,74 %
05.10.2023 04:20 13,3 C 12,8 C 9,4 C 88 % 1024,2 hPa 0,0 l/m 0 min 0 min 0 W/m 12,9 km/h (3 Bft) 95,74 %
05.10.2023 04:22 13,2 C 12,8 C 9,4 C 88 % 1024,2 hPa 0,0 l/m 0 min 0 min 0 W/m 6,4 km/h (2 Bft) 95,74 %
05.10.2023 04:24 13,2 C 12,8 C 9,4 C 88 % 1024,3 hPa 0,0 l/m 0 min 0 min 0 W/m 6,4 km/h (2 Bft) 97,87 %
05.10.2023 04:26 13,2 C 12,8 C 9,4 C 88 % 1024,3 hPa 0,0 l/m 0 min 0 min 0 W/m 6,4 km/h (2 Bft) 97,83 %
05.10.2023 04:28 13,2 C 12,8 C 9,4 C 88 % 1024,3 hPa 0,0 l/m 0 min 0 min 0 W/m 9,7 km/h (2 Bft) 97,87 %
05.10.2023 04:30 13,2 C 12,8 C 9,4 C 88 % 1024,3 hPa 0,0 l/m 0 min 0 min 0 W/m 12,9 km/h (3 Bft) 97,87 %
05.10.2023 04:32 13,2 C 12,2 C 9,4 C 88 % 1024,2 hPa 0,0 l/m 0 min 0 min 0 W/m 6,4 km/h (2 Bft) 95,74 %
05.10.2023 04:34 13,2 C 12,8 C 9,4 C 88 % 1024,2 hPa 0,0 l/m 0 min 0 min 0 W/m 6,4 km/h (2 Bft) 95,74 %
05.10.2023 04:36 13,2 C 12,8 C 9,4 C 88 % 1024,2 hPa 0,0 l/m 0 min 0 min 0 W/m 12,9 km/h (3 Bft) 93,62 %
05.10.2023 04:38 13,2 C 12,2 C 9,4 C 88 % 1024,1 hPa 0,0 l/m 0 min 0 min 0 W/m 3,2 km/h (1 Bft) 95,74 %
05.10.2023 04:40 13,2 C 12,2 C 8,9 C 88 % 1024,1 hPa 0,0 l/m 0 min 0 min 0 W/m 6,4 km/h (2 Bft) 93,62 %
05.10.2023 04:42 13,2 C 12,2 C 8,9 C 88 % 1024,1 hPa 0,0 l/m 0 min 0 min 0 W/m 12,9 km/h (3 Bft) 95,74 %
05.10.2023 04:44 13,2 C 12,2 C 9,4 C 88 % 1024,0 hPa 0,0 l/m 0 min 0 min 0 W/m 6,4 km/h (2 Bft) 97,87 %
05.10.2023 04:46 13,2 C 12,2 C 9,4 C 88 % 1024,1 hPa 0,0 l/m 0 min 0 min 0 W/m 9,7 km/h (2 Bft) 95,74 %
05.10.2023 04:48 13,2 C 12,2 C 9,4 C 88 % 1024,1 hPa 0,0 l/m 0 min 0 min 0 W/m 9,7 km/h (2 Bft) 95,65 %
05.10.2023 04:50 13,2 C 12,2 C 9,4 C 88 % 1024,2 hPa 0,0 l/m 0 min 0 min 0 W/m 12,9 km/h (3 Bft) 95,74 %
05.10.2023 04:52 13,2 C 12,2 C 9,4 C 88 % 1024,1 hPa 0,0 l/m 0 min 0 min 0 W/m 12,9 km/h (3 Bft) 95,74 %
05.10.2023 04:54 13,2 C 12,2 C 9,4 C 88 % 1024,1 hPa 0,0 l/m 0 min 0 min 0 W/m 16,1 km/h (3 Bft) 97,87 %
05.10.2023 04:56 13,2 C 12,2 C 9,4 C 88 % 1024,1 hPa 0,0 l/m 0 min 0 min 0 W/m 16,1 km/h (3 Bft) 93,62 %
05.10.2023 04:58 13,2 C 12,2 C 9,4 C 88 % 1024,1 hPa 0,0 l/m 0 min 0 min 0 W/m 9,7 km/h (2 Bft) 93,62 %
05.10.2023 05:00 13,2 C 12,2 C 9,4 C 88 % 1024,0 hPa 0,0 l/m 0 min 0 min 0 W/m 6,4 km/h (2 Bft) 97,87 %
05.10.2023 05:02 13,2 C 12,2 C 8,9 C 88 % 1024,0 hPa 0,0 l/m 0 min 0 min 0 W/m 16,1 km/h (3 Bft) 95,74 %
05.10.2023 05:04 13,2 C 12,2 C 8,9 C 88 % 1024,1 hPa 0,0 l/m 0 min 0 min 0 W/m 6,4 km/h (2 Bft) 97,92 %
05.10.2023 05:06 13,2 C 12,2 C 8,9 C 88 % 1024,0 hPa 0,0 l/m 0 min 0 min 0 W/m 6,4 km/h (2 Bft) 97,83 %
05.10.2023 05:08 13,2 C 12,2 C 8,9 C 88 % 1024,0 hPa 0,0 l/m 0 min 0 min 0 W/m 3,2 km/h (1 Bft) 97,87 %
05.10.2023 05:10 13,2 C 12,2 C 8,9 C 88 % 1024,0 hPa 0,0 l/m 0 min 0 min 0 W/m 6,4 km/h (2 Bft) 97,87 %
05.10.2023 05:12 13,1 C 12,2 C 8,9 C 88 % 1024,0 hPa 0,0 l/m 0 min 0 min 0 W/m 6,4 km/h (2 Bft) 97,87 %
05.10.2023 05:14 13,1 C 12,2 C 8,9 C 88 % 1024,0 hPa 0,0 l/m 0 min 0 min 0 W/m 12,9 km/h (3 Bft) 95,74 %
05.10.2023 05:16 13,1 C 12,2 C 8,9 C 88 % 1024,0 hPa 0,0 l/m 0 min 0 min 0 W/m 6,4 km/h (2 Bft) 97,87 %
05.10.2023 05:18 13,1 C 12,2 C 8,9 C 88 % 1024,0 hPa 0,0 l/m 0 min 0 min 0 W/m 6,4 km/h (2 Bft) 97,87 %
05.10.2023 05:20 13,1 C 12,2 C 8,9 C 89 % 1024,0 hPa 0,0 l/m 0 min 0 min 0 W/m 6,4 km/h (2 Bft) 97,87 %
05.10.2023 05:22 13,1 C 12,2 C 8,9 C 89 % 1023,9 hPa 0,0 l/m 0 min 0 min 0 W/m 6,4 km/h (2 Bft) 97,87 %
05.10.2023 05:24 13,1 C 12,2 C 8,9 C 89 % 1024,0 hPa 0,0 l/m 0 min 0 min 0 W/m 6,4 km/h (2 Bft) 95,74 %
05.10.2023 05:26 13,0 C 12,2 C 8,9 C 89 % 1024,0 hPa 0,0 l/m 0 min 0 min 0 W/m 6,4 km/h (2 Bft) 97,87 %
05.10.2023 05:28 13,0 C 12,2 C 8,9 C 89 % 1024,0 hPa 0,0 l/m 0 min 0 min 0 W/m 6,4 km/h (2 Bft) 100,00 %
05.10.2023 05:30 13,0 C 12,2 C 8,9 C 89 % 1023,9 hPa 0,0 l/m 0 min 0 min 0 W/m 3,2 km/h (1 Bft) 100,00 %
05.10.2023 05:32 13,0 C 12,2 C 8,9 C 89 % 1023,9 hPa 0,0 l/m 0 min 0 min 0 W/m 0,0 km/h (0 Bft) 97,87 %
05.10.2023 05:34 12,9 C 12,2 C 8,9 C 89 % 1023,9 hPa 0,0 l/m 0 min 0 min 0 W/m 3,2 km/h (1 Bft) 100,00 %
05.10.2023 05:36 12,9 C 12,2 C 8,9 C 89 % 1024,0 hPa 0,0 l/m 0 min 0 min 0 W/m 6,4 km/h (2 Bft) 97,87 %
05.10.2023 05:38 12,9 C 12,2 C 8,9 C 89 % 1024,0 hPa 0,0 l/m 0 min 0 min 0 W/m 6,4 km/h (2 Bft) 100,00 %
05.10.2023 05:40 12,9 C 12,2 C 8,9 C 89 % 1024,0 hPa 0,0 l/m 0 min 0 min 0 W/m 6,4 km/h (2 Bft) 100,00 %
05.10.2023 05:42 12,9 C 12,2 C 8,9 C 89 % 1024,0 hPa 0,0 l/m 0 min 0 min 0 W/m 6,4 km/h (2 Bft) 95,74 %
05.10.2023 05:44 12,8 C 12,2 C 8,9 C 89 % 1024,0 hPa 0,0 l/m 0 min 0 min 0 W/m 3,2 km/h (1 Bft) 97,83 %
05.10.2023 05:46 12,8 C 12,2 C 8,9 C 89 % 1024,0 hPa 0,0 l/m 0 min 0 min 0 W/m 6,4 km/h (2 Bft) 91,49 %
05.10.2023 05:48 12,8 C 12,2 C 8,9 C 89 % 1024,1 hPa 0,0 l/m 0 min 0 min 0 W/m 9,7 km/h (2 Bft) 97,87 %
05.10.2023 05:50 12,8 C 12,2 C 8,9 C 89 % 1024,1 hPa 0,0 l/m 0 min 0 min 0 W/m 6,4 km/h (2 Bft) 97,87 %
05.10.2023 05:52 12,8 C 12,2 C 8,9 C 89 % 1024,1 hPa 0,0 l/m 0 min 0 min 0 W/m 6,4 km/h (2 Bft) 97,87 %
05.10.2023 05:54 12,8 C 12,2 C 8,9 C 89 % 1024,1 hPa 0,0 l/m 0 min 0 min 0 W/m 6,4 km/h (2 Bft) 97,87 %
05.10.2023 05:56 12,8 C 11,7 C 8,9 C 89 % 1024,1 hPa 0,0 l/m 0 min 0 min 0 W/m 6,4 km/h (2 Bft) 97,87 %
05.10.2023 05:58 12,8 C 12,2 C 8,9 C 90 % 1024,2 hPa 0,0 l/m 0 min 0 min 0 W/m 6,4 km/h (2 Bft) 97,87 %
05.10.2023 06:00 12,8 C 12,2 C 8,9 C 90 % 1024,1 hPa 0,0 l/m 0 min 0 min 0 W/m 6,4 km/h (2 Bft) 97,14 %
05.10.2023 06:02 12,8 C 12,2 C 8,9 C 90 % 1024,2 hPa 0,0 l/m 0 min 0 min 0 W/m 9,7 km/h (2 Bft) 98,31 %
05.10.2023 06:04 12,8 C 12,2 C 8,9 C 90 % 1024,2 hPa 0,0 l/m 0 min 0 min 0 W/m 6,4 km/h (2 Bft) 97,62 %
05.10.2023 06:07 12,7 C 12,2 C 8,9 C 90 % 1024,2 hPa 0,0 l/m 0 min 0 min 0 W/m 12,9 km/h (3 Bft) 95,52 %
05.10.2023 06:08 12,7 C 12,2 C 8,9 C 90 % 1024,1 hPa 0,0 l/m 0 min 0 min 0 W/m 6,4 km/h (2 Bft) 100,00 %
05.10.2023 06:10 12,7 C 12,2 C 8,9 C 90 % 1024,2 hPa 0,0 l/m 0 min 0 min 0 W/m 12,9 km/h (3 Bft) 99,12 %
05.10.2023 06:12 12,7 C 12,2 C 8,9 C 90 % 1024,2 hPa 0,0 l/m 0 min 0 min 0 W/m 3,2 km/h (1 Bft) 94,29 %
05.10.2023 06:16 12,7 C 12,2 C 8,9 C 90 % 1024,1 hPa 0,0 l/m 0 min 0 min 0 W/m 16,1 km/h (3 Bft) 80,65 %
05.10.2023 06:18 12,7 C 12,2 C 8,9 C 90 % 1024,1 hPa 0,0 l/m 0 min 0 min 0 W/m 9,7 km/h (2 Bft) 100,00 %
05.10.2023 06:20 12,7 C 11,7 C 8,9 C 90 % 1024,1 hPa 0,0 l/m 0 min 0 min 0 W/m 12,9 km/h (3 Bft) 100,00 %
05.10.2023 06:22 12,7 C 11,7 C 8,9 C 90 % 1024,1 hPa 0,0 l/m 0 min 0 min 0 W/m 9,7 km/h (2 Bft) 100,00 %
05.10.2023 06:24 12,7 C 11,7 C 8,9 C 90 % 1024,1 hPa 0,0 l/m 0 min 0 min 0 W/m 9,7 km/h (2 Bft) 100,00 %
05.10.2023 06:26 12,7 C 11,7 C 8,9 C 90 % 1024,1 hPa 0,0 l/m 0 min 0 min 0 W/m 6,4 km/h (2 Bft) 100,00 %
05.10.2023 06:28 12,7 C 11,7 C 8,9 C 90 % 1024,1 hPa 0,0 l/m 0 min 0 min 0 W/m 12,9 km/h (3 Bft) 95,74 %
05.10.2023 06:30 12,7 C 11,7 C 8,9 C 90 % 1024,1 hPa 0,0 l/m 0 min 0 min 0 W/m 16,1 km/h (3 Bft) 100,00 %
05.10.2023 06:32 12,7 C 11,7 C 8,9 C 90 % 1024,1 hPa 0,0 l/m 0 min 0 min 0 W/m 6,4 km/h (2 Bft) 100,00 %
05.10.2023 06:34 12,6 C 11,7 C 8,9 C 90 % 1024,1 hPa 0,0 l/m 0 min 0 min 0 W/m 12,9 km/h (3 Bft) 100,00 %
05.10.2023 06:36 12,7 C 11,7 C 8,9 C 90 % 1024,1 hPa 0,0 l/m 0 min 0 min 0 W/m 3,2 km/h (1 Bft) 100,00 %
05.10.2023 06:38 12,6 C 11,7 C 8,9 C 90 % 1024,0 hPa 0,0 l/m 0 min 0 min 0 W/m 12,9 km/h (3 Bft) 97,87 %
05.10.2023 06:40 12,6 C 11,7 C 8,9 C 90 % 1024,1 hPa 0,0 l/m 0 min 0 min 0 W/m 16,1 km/h (3 Bft) 97,87 %
05.10.2023 06:42 12,6 C 11,7 C 8,9 C 90 % 1024,1 hPa 0,0 l/m 0 min 0 min 0 W/m 6,4 km/h (2 Bft) 97,87 %
05.10.2023 06:44 12,6 C 11,7 C 8,9 C 90 % 1024,1 hPa 0,0 l/m 0 min 0 min 0 W/m 6,4 km/h (2 Bft) 95,74 %
05.10.2023 06:46 12,6 C 11,7 C 8,9 C 90 % 1024,1 hPa 0,0 l/m 0 min 0 min 0 W/m 12,9 km/h (3 Bft) 97,87 %
05.10.2023 06:48 12,6 C 11,7 C 8,9 C 90 % 1024,0 hPa 0,0 l/m 0 min 0 min 0 W/m 19,3 km/h (3 Bft) 97,87 %
05.10.2023 06:50 12,6 C 11,7 C 8,3 C 90 % 1024,0 hPa 0,0 l/m 0 min 0 min 0 W/m 19,3 km/h (3 Bft) 95,74 %
05.10.2023 06:52 12,6 C 11,7 C 8,3 C 90 % 1024,0 hPa 0,0 l/m 0 min 0 min 0 W/m 9,7 km/h (2 Bft) 97,87 %
05.10.2023 06:54 12,6 C 11,7 C 8,3 C 90 % 1024,1 hPa 0,0 l/m 0 min 0 min 0 W/m 6,4 km/h (2 Bft) 97,87 %
05.10.2023 06:56 12,6 C 11,7 C 8,3 C 90 % 1024,0 hPa 0,0 l/m 0 min 0 min 0 W/m 6,4 km/h (2 Bft) 97,83 %
05.10.2023 06:58 12,6 C 11,7 C 8,3 C 91 % 1024,0 hPa 0,0 l/m 0 min 0 min 0 W/m 6,4 km/h (2 Bft) 97,87 %
05.10.2023 07:00 12,6 C 11,7 C 8,3 C 91 % 1024,0 hPa 0,0 l/m 0 min 0 min 0 W/m 6,4 km/h (2 Bft) 97,87 %
05.10.2023 07:02 12,5 C 11,7 C 8,3 C 91 % 1024,0 hPa 0,0 l/m 0 min 0 min 0 W/m 12,9 km/h (3 Bft) 95,74 %
05.10.2023 07:04 12,5 C 11,7 C 8,3 C 91 % 1024,0 hPa 0,0 l/m 0 min 0 min 0 W/m 6,4 km/h (2 Bft) 97,96 %
05.10.2023 07:06 12,5 C 11,7 C 8,3 C 91 % 1024,0 hPa 0,0 l/m 0 min 0 min 0 W/m 9,7 km/h (2 Bft) 95,74 %
05.10.2023 07:08 12,5 C 11,7 C 8,3 C 91 % 1024,0 hPa 0,0 l/m 0 min 0 min 0 W/m 6,4 km/h (2 Bft) 100,00 %
05.10.2023 07:10 12,5 C 11,7 C 8,3 C 91 % 1024,0 hPa 0,0 l/m 0 min 0 min 0 W/m 6,4 km/h (2 Bft) 98,28 %
05.10.2023 07:12 12,5 C 11,7 C 8,3 C 91 % 1024,0 hPa 0,0 l/m 0 min 0 min 0 W/m 6,4 km/h (2 Bft) 97,14 %
05.10.2023 07:14 12,5 C 11,7 C 8,3 C 91 % 1024,0 hPa 0,0 l/m 0 min 0 min 0 W/m 6,4 km/h (2 Bft) 97,87 %
05.10.2023 07:16 12,4 C 11,7 C 8,3 C 91 % 1023,9 hPa 0,0 l/m 0 min 0 min 0 W/m 6,4 km/h (2 Bft) 97,87 %
05.10.2023 07:18 12,4 C 11,7 C 8,3 C 91 % 1024,0 hPa 0,0 l/m 0 min 0 min 0 W/m 3,2 km/h (1 Bft) 97,87 %
05.10.2023 07:20 12,4 C 11,7 C 8,3 C 91 % 1023,9 hPa 0,0 l/m 0 min 0 min 0 W/m 12,9 km/h (3 Bft) 95,74 %
05.10.2023 07:22 12,4 C 11,7 C 8,3 C 91 % 1023,9 hPa 0,0 l/m 0 min 0 min 0 W/m 9,7 km/h (2 Bft) 97,87 %
05.10.2023 07:24 12,4 C 11,7 C 8,3 C 91 % 1023,8 hPa 0,0 l/m 0 min 0 min 0 W/m 16,1 km/h (3 Bft) 100,00 %
05.10.2023 07:26 12,4 C 11,7 C 8,3 C 91 % 1023,9 hPa 0,0 l/m 0 min 0 min 0 W/m 16,1 km/h (3 Bft) 95,74 %
05.10.2023 07:28 12,4 C 11,7 C 8,3 C 91 % 1023,8 hPa 0,0 l/m 0 min 0 min 0 W/m 6,4 km/h (2 Bft) 100,00 %
05.10.2023 07:30 12,4 C 11,7 C 8,3 C 91 % 1023,9 hPa 0,0 l/m 0 min 0 min 0 W/m 16,1 km/h (3 Bft) 97,83 %
05.10.2023 07:32 12,4 C 11,7 C 8,3 C 91 % 1023,9 hPa 0,0 l/m 0 min 0 min 0 W/m 19,3 km/h (3 Bft) 95,74 %
05.10.2023 07:34 12,4 C 11,7 C 8,3 C 91 % 1023,9 hPa 0,0 l/m 0 min 0 min 0 W/m 16,1 km/h (3 Bft) 97,87 %
05.10.2023 07:36 12,4 C 11,7 C 8,3 C 91 % 1023,8 hPa 0,0 l/m 0 min 0 min 0 W/m 12,9 km/h (3 Bft) 95,74 %
05.10.2023 07:38 12,4 C 11,7 C 8,3 C 91 % 1023,8 hPa 0,0 l/m 0 min 0 min 0 W/m 16,1 km/h (3 Bft) 95,74 %
05.10.2023 07:40 12,4 C 11,7 C 8,9 C 91 % 1023,8 hPa 0,0 l/m 0 min 0 min 0 W/m 22,5 km/h (4 Bft) 95,74 %
05.10.2023 07:42 12,4 C 11,7 C 8,9 C 91 % 1023,7 hPa 0,0 l/m 0 min 0 min 0 W/m 25,7 km/h (4 Bft) 95,83 %
05.10.2023 07:44 12,5 C 11,7 C 8,9 C 91 % 1023,7 hPa 0,0 l/m 0 min 0 min 0 W/m 16,1 km/h (3 Bft) 95,74 %
05.10.2023 07:46 12,5 C 11,7 C 8,9 C 91 % 1023,7 hPa 0,0 l/m 0 min 0 min 3 W/m 12,9 km/h (3 Bft) 95,74 %
05.10.2023 07:48 12,5 C 11,7 C 8,9 C 91 % 1023,8 hPa 0,0 l/m 0 min 0 min 5 W/m 12,9 km/h (3 Bft) 97,87 %
05.10.2023 07:50 12,5 C 11,7 C 8,9 C 91 % 1023,8 hPa 0,0 l/m 0 min 0 min 5 W/m 12,9 km/h (3 Bft) 95,65 %
05.10.2023 07:52 12,5 C 11,7 C 8,9 C 91 % 1023,8 hPa 0,0 l/m 0 min 0 min 7 W/m 12,9 km/h (3 Bft) 95,74 %
05.10.2023 07:54 12,5 C 11,7 C 8,9 C 91 % 1023,9 hPa 0,0 l/m 0 min 0 min 7 W/m 19,3 km/h (3 Bft) 93,62 %
05.10.2023 07:56 12,5 C 11,7 C 8,3 C 91 % 1024,0 hPa 0,0 l/m 0 min 0 min 10 W/m 6,4 km/h (2 Bft) 95,74 %
05.10.2023 07:58 12,5 C 11,7 C 8,3 C 91 % 1024,0 hPa 0,0 l/m 0 min 0 min 11 W/m 6,4 km/h (2 Bft) 95,74 %
05.10.2023 08:00 12,5 C 11,7 C 8,3 C 91 % 1024,0 hPa 0,0 l/m 0 min 0 min 12 W/m 6,4 km/h (2 Bft) 95,74 %
05.10.2023 08:02 12,5 C 11,7 C 8,9 C 91 % 1024,2 hPa 0,0 l/m 0 min 0 min 14 W/m 6,4 km/h (2 Bft) 95,74 %
05.10.2023 08:04 12,6 C 11,7 C 8,9 C 91 % 1024,2 hPa 0,0 l/m 0 min 0 min 16 W/m 9,7 km/h (2 Bft) 97,92 %
05.10.2023 08:06 12,6 C 12,2 C 8,9 C 91 % 1024,2 hPa 0,0 l/m 0 min 0 min 19 W/m 6,4 km/h (2 Bft) 93,22 %
05.10.2023 08:08 12,5 C 12,2 C 8,9 C 91 % 1024,2 hPa 0,0 l/m 0 min 0 min 21 W/m 3,2 km/h (1 Bft) 97,14 %
05.10.2023 08:10 12,6 C 12,2 C 8,9 C 91 % 1024,2 hPa 0,0 l/m 0 min 0 min 23 W/m 6,4 km/h (2 Bft) 95,74 %
05.10.2023 08:12 12,6 C 12,2 C 8,9 C 91 % 1024,2 hPa 0,0 l/m 0 min 0 min 25 W/m 6,4 km/h (2 Bft) 95,74 %
05.10.2023 08:14 12,6 C 12,2 C 8,9 C 91 % 1024,3 hPa 0,0 l/m 0 min 0 min 25 W/m 9,7 km/h (2 Bft) 97,87 %
05.10.2023 08:16 12,6 C 12,2 C 8,9 C 91 % 1024,3 hPa 0,0 l/m 0 min 0 min 26 W/m 6,4 km/h (2 Bft) 94,00 %
05.10.2023 08:18 12,6 C 12,2 C 8,9 C 91 % 1024,5 hPa 0,0 l/m 0 min 0 min 28 W/m 6,4 km/h (2 Bft) 97,87 %
05.10.2023 08:20 12,6 C 12,2 C 8,9 C 91 % 1024,4 hPa 0,0 l/m 0 min 0 min 30 W/m 6,4 km/h (2 Bft) 97,83 %
05.10.2023 08:24 12,6 C 12,2 C 8,9 C 91 % 1024,5 hPa 0,0 l/m 0 min 0 min 35 W/m 9,7 km/h (2 Bft) 100,00 %
05.10.2023 08:26 12,6 C 12,2 C 8,9 C 91 % 1024,6 hPa 0,0 l/m 0 min 0 min 35 W/m 6,4 km/h (2 Bft) 97,73 %
05.10.2023 08:28 12,6 C 12,2 C 8,9 C 92 % 1024,6 hPa 0,0 l/m 0 min 0 min 35 W/m 9,7 km/h (2 Bft) 97,87 %
05.10.2023 08:30 12,6 C 12,2 C 8,9 C 92 % 1024,6 hPa 0,0 l/m 0 min 0 min 37 W/m 9,7 km/h (2 Bft) 100,00 %
05.10.2023 08:32 12,7 C 12,2 C 8,9 C 92 % 1024,7 hPa 0,0 l/m 0 min 0 min 35 W/m 3,2 km/h (1 Bft) 95,74 %
05.10.2023 08:34 12,7 C 12,2 C 8,9 C 92 % 1024,6 hPa 0,0 l/m 0 min 0 min 35 W/m 9,7 km/h (2 Bft) 100,00 %
05.10.2023 08:36 12,7 C 12,2 C 8,9 C 92 % 1024,7 hPa 0,0 l/m 0 min 0 min 35 W/m 6,4 km/h (2 Bft) 100,00 %
05.10.2023 08:38 12,7 C 12,2 C 8,9 C 92 % 1024,6 hPa 0,0 l/m 0 min 0 min 36 W/m 9,7 km/h (2 Bft) 100,00 %
05.10.2023 08:40 12,7 C 12,2 C 8,9 C 92 % 1024,6 hPa 0,0 l/m 0 min 0 min 37 W/m 6,4 km/h (2 Bft) 100,00 %
05.10.2023 08:42 12,7 C 12,2 C 8,9 C 91 % 1024,6 hPa 0,0 l/m 0 min 0 min 39 W/m 12,9 km/h (3 Bft) 97,87 %
05.10.2023 08:44 12,8 C 12,2 C 8,9 C 91 % 1024,6 hPa 0,0 l/m 0 min 0 min 39 W/m 6,4 km/h (2 Bft) 100,00 %
05.10.2023 08:46 12,8 C 12,2 C 8,9 C 91 % 1024,6 hPa 0,0 l/m 0 min 0 min 39 W/m 6,4 km/h (2 Bft) 100,00 %
05.10.2023 08:48 12,8 C 12,2 C 8,9 C 91 % 1024,5 hPa 0,0 l/m 0 min 0 min 41 W/m 16,1 km/h (3 Bft) 100,00 %
05.10.2023 08:50 12,8 C 12,2 C 8,9 C 91 % 1024,5 hPa 0,0 l/m 0 min 0 min 45 W/m 12,9 km/h (3 Bft) 100,00 %
05.10.2023 08:52 12,8 C 12,2 C 8,9 C 91 % 1024,5 hPa 0,0 l/m 0 min 0 min 49 W/m 9,7 km/h (2 Bft) 97,87 %
05.10.2023 08:54 12,8 C 12,2 C 8,9 C 91 % 1024,5 hPa 0,0 l/m 0 min 0 min 53 W/m 6,4 km/h (2 Bft) 100,00 %
05.10.2023 08:56 12,9 C 12,8 C 8,9 C 91 % 1024,5 hPa 0,0 l/m 0 min 0 min 57 W/m 3,2 km/h (1 Bft) 97,87 %
05.10.2023 08:58 12,9 C 12,8 C 9,4 C 91 % 1024,6 hPa 0,0 l/m 0 min 0 min 59 W/m 6,4 km/h (2 Bft) 97,87 %
05.10.2023 09:00 12,9 C 12,8 C 9,4 C 91 % 1024,6 hPa 0,0 l/m 0 min 0 min 60 W/m 6,4 km/h (2 Bft) 100,00 %
05.10.2023 09:02 12,9 C 12,8 C 9,4 C 91 % 1024,6 hPa 0,0 l/m 0 min 0 min 60 W/m 6,4 km/h (2 Bft) 100,00 %
05.10.2023 09:04 12,9 C 12,8 C 9,4 C 91 % 1024,6 hPa 0,0 l/m 0 min 0 min 62 W/m 6,4 km/h (2 Bft) 97,83 %
05.10.2023 09:08 13,0 C 12,8 C 9,4 C 91 % 1024,7 hPa 0,0 l/m 0 min 0 min 66 W/m 6,4 km/h (2 Bft) 99,04 %
05.10.2023 09:09 13,0 C 12,8 C 9,4 C 91 % 1024,8 hPa 0,0 l/m 0 min 0 min 71 W/m 3,2 km/h (1 Bft) 100,00 %
05.10.2023 09:10 13,1 C 12,8 C 9,4 C 91 % 1024,8 hPa 0,0 l/m 0 min 0 min 70 W/m 6,4 km/h (2 Bft) 100,00 %
05.10.2023 09:14 13,1 C 12,8 C 9,4 C 91 % 1024,8 hPa 0,0 l/m 0 min 0 min 77 W/m 6,4 km/h (2 Bft) 95,74 %
05.10.2023 09:16 13,1 C 12,8 C 9,4 C 91 % 1024,9 hPa 0,0 l/m 0 min 0 min 78 W/m 12,9 km/h (3 Bft) 95,74 %
05.10.2023 09:18 13,1 C 12,8 C 9,4 C 91 % 1024,8 hPa 0,0 l/m 0 min 0 min 79 W/m 6,4 km/h (2 Bft) 97,87 %
05.10.2023 09:20 13,2 C 12,8 C 9,4 C 91 % 1024,9 hPa 0,0 l/m 0 min 0 min 79 W/m 6,4 km/h (2 Bft) 97,87 %
05.10.2023 09:22 13,2 C 12,8 C 9,4 C 91 % 1024,9 hPa 0,0 l/m 0 min 0 min 79 W/m 6,4 km/h (2 Bft) 97,87 %
05.10.2023 09:24 13,2 C 12,8 C 9,4 C 91 % 1024,9 hPa 0,0 l/m 0 min 0 min 77 W/m 12,9 km/h (3 Bft) 95,74 %
05.10.2023 09:26 13,2 C 12,8 C 9,4 C 91 % 1025,0 hPa 0,0 l/m 0 min 0 min 77 W/m 9,7 km/h (2 Bft) 95,65 %
05.10.2023 09:28 13,3 C 12,8 C 9,4 C 91 % 1024,9 hPa 0,0 l/m 0 min 0 min 77 W/m 9,7 km/h (2 Bft) 93,62 %
05.10.2023 09:30 13,3 C 12,8 C 9,4 C 91 % 1025,0 hPa 0,0 l/m 0 min 0 min 74 W/m 3,2 km/h (1 Bft) 95,74 %
05.10.2023 09:32 13,3 C 12,8 C 9,4 C 91 % 1025,0 hPa 0,0 l/m 0 min 0 min 73 W/m 6,4 km/h (2 Bft) 95,74 %
05.10.2023 09:34 13,3 C 12,8 C 9,4 C 91 % 1025,0 hPa 0,0 l/m 0 min 0 min 73 W/m 6,4 km/h (2 Bft) 95,74 %
05.10.2023 09:36 13,4 C 12,8 C 9,4 C 91 % 1025,0 hPa 0,0 l/m 0 min 0 min 76 W/m 6,4 km/h (2 Bft) 95,74 %
05.10.2023 09:38 13,4 C 13,3 C 9,4 C 91 % 1025,0 hPa 0,0 l/m 0 min 0 min 82 W/m 3,2 km/h (1 Bft) 95,74 %
05.10.2023 09:40 13,4 C 13,3 C 9,4 C 91 % 1025,1 hPa 0,0 l/m 0 min 0 min 87 W/m 6,4 km/h (2 Bft) 93,48 %
05.10.2023 09:42 13,4 C 13,3 C 9,4 C 91 % 1025,1 hPa 0,0 l/m 0 min 0 min 90 W/m 6,4 km/h (2 Bft) 91,49 %
05.10.2023 09:44 13,5 C 13,3 C 9,4 C 91 % 1025,1 hPa 0,0 l/m 0 min 0 min 91 W/m 6,4 km/h (2 Bft) 95,74 %
05.10.2023 09:46 13,5 C 13,3 C 9,4 C 91 % 1025,2 hPa 0,0 l/m 0 min 0 min 92 W/m 9,7 km/h (2 Bft) 93,62 %
05.10.2023 09:48 13,6 C 13,3 C 9,4 C 90 % 1025,2 hPa 0,0 l/m 0 min 0 min 94 W/m 6,4 km/h (2 Bft) 95,74 %
05.10.2023 09:50 13,6 C 13,3 C 10,0 C 91 % 1025,2 hPa 0,0 l/m 0 min 0 min 94 W/m 16,1 km/h (3 Bft) 93,62 %
05.10.2023 09:52 13,6 C 13,3 C 10,0 C 91 % 1025,3 hPa 0,0 l/m 0 min 0 min 94 W/m 9,7 km/h (2 Bft) 95,74 %
05.10.2023 09:54 13,6 C 13,3 C 10,0 C 90 % 1025,3 hPa 0,0 l/m 0 min 0 min 95 W/m 12,9 km/h (3 Bft) 96,30 %
05.10.2023 09:56 13,7 C 13,3 C 10,0 C 90 % 1025,4 hPa 0,0 l/m 0 min 0 min 93 W/m 6,4 km/h (2 Bft) 97,92 %
05.10.2023 09:58 13,7 C 13,3 C 10,0 C 90 % 1025,4 hPa 0,0 l/m 0 min 0 min 94 W/m 9,7 km/h (2 Bft) 97,83 %
05.10.2023 10:00 13,7 C 13,3 C 10,0 C 90 % 1025,4 hPa 0,0 l/m 0 min 0 min 98 W/m 12,9 km/h (3 Bft) 100,00 %
05.10.2023 10:02 13,7 C 13,3 C 10,0 C 90 % 1025,4 hPa 0,0 l/m 0 min 0 min 101 W/m 16,1 km/h (3 Bft) 95,74 %
05.10.2023 10:04 13,7 C 13,3 C 10,0 C 90 % 1025,4 hPa 0,0 l/m 0 min 0 min 102 W/m 9,7 km/h (2 Bft) 97,87 %
05.10.2023 10:08 13,8 C 13,3 C 10,0 C 90 % 1025,4 hPa 0,0 l/m 0 min 0 min 104 W/m 12,9 km/h (3 Bft) 100,00 %
05.10.2023 10:10 13,8 C 13,9 C 10,0 C 90 % 1025,5 hPa 0,0 l/m 0 min 0 min 109 W/m 9,7 km/h (2 Bft) 97,87 %
05.10.2023 10:12 13,8 C 13,9 C 10,0 C 90 % 1025,5 hPa 0,0 l/m 0 min 0 min 113 W/m 19,3 km/h (3 Bft) 100,00 %
05.10.2023 10:14 13,8 C 13,9 C 10,0 C 90 % 1025,5 hPa 0,0 l/m 0 min 0 min 116 W/m 16,1 km/h (3 Bft) 100,00 %
05.10.2023 10:16 13,9 C 13,9 C 10,0 C 90 % 1025,5 hPa 0,0 l/m 0 min 0 min 115 W/m 6,4 km/h (2 Bft) 100,00 %
05.10.2023 10:18 13,9 C 13,9 C 10,0 C 90 % 1025,5 hPa 0,0 l/m 0 min 0 min 115 W/m 9,7 km/h (2 Bft) 100,00 %
05.10.2023 10:20 14,0 C 13,9 C 10,0 C 90 % 1025,5 hPa 0,0 l/m 0 min 0 min 118 W/m 9,7 km/h (2 Bft) 98,00 %
05.10.2023 10:22 14,0 C 13,9 C 10,0 C 89 % 1025,6 hPa 0,0 l/m 0 min 0 min 119 W/m 6,4 km/h (2 Bft) 100,00 %
05.10.2023 10:24 14,1 C 13,9 C 10,0 C 89 % 1025,5 hPa 0,0 l/m 0 min 0 min 120 W/m 12,9 km/h (3 Bft) 100,00 %
05.10.2023 10:26 14,2 C 14,4 C 10,6 C 89 % 1025,5 hPa 0,0 l/m 0 min 0 min 127 W/m 9,7 km/h (2 Bft) 100,00 %
05.10.2023 10:28 14,3 C 14,4 C 10,6 C 89 % 1025,5 hPa 0,0 l/m 0 min 0 min 128 W/m 16,1 km/h (3 Bft) 100,00 %
05.10.2023 10:30 14,3 C 14,4 C 10,6 C 89 % 1025,5 hPa 0,0 l/m 0 min 0 min 144 W/m 16,1 km/h (3 Bft) 96,61 %
05.10.2023 10:32 14,3 C 14,4 C 10,6 C 89 % 1025,6 hPa 0,0 l/m 0 min 0 min 160 W/m 12,9 km/h (3 Bft) 94,29 %
05.10.2023 10:34 14,3 C 14,4 C 10,6 C 89 % 1025,6 hPa 0,0 l/m 2 min 0 min 201 W/m 16,1 km/h (3 Bft) 97,87 %
05.10.2023 10:36 14,3 C 14,4 C 10,6 C 89 % 1025,6 hPa 0,0 l/m 0 min 0 min 164 W/m 12,9 km/h (3 Bft) 95,74 %
05.10.2023 10:38 14,4 C 14,4 C 10,6 C 89 % 1025,7 hPa 0,0 l/m 0 min 0 min 169 W/m 9,7 km/h (2 Bft) 95,74 %
05.10.2023 10:40 14,5 C 15,0 C 10,6 C 88 % 1025,6 hPa 0,0 l/m 0 min 0 min 194 W/m 3,2 km/h (1 Bft) 95,65 %
05.10.2023 10:42 14,6 C 15,0 C 11,1 C 88 % 1025,6 hPa 0,0 l/m 0 min 0 min 161 W/m 6,4 km/h (2 Bft) 95,74 %
05.10.2023 10:44 14,6 C 15,0 C 11,1 C 88 % 1025,7 hPa 0,0 l/m 0 min 0 min 164 W/m 12,9 km/h (3 Bft) 97,87 %
05.10.2023 10:46 14,6 C 15,0 C 11,1 C 88 % 1025,6 hPa 0,0 l/m 0 min 0 min 167 W/m 9,7 km/h (2 Bft) 97,87 %
05.10.2023 10:48 14,7 C 15,0 C 11,1 C 88 % 1025,6 hPa 0,0 l/m 0 min 0 min 169 W/m 16,1 km/h (3 Bft) 95,74 %
05.10.2023 10:50 14,7 C 14,4 C 11,1 C 87 % 1025,6 hPa 0,0 l/m 0 min 0 min 178 W/m 9,7 km/h (2 Bft) 97,87 %
05.10.2023 10:52 14,7 C 14,4 C 11,1 C 87 % 1025,6 hPa 0,0 l/m 0 min 0 min 169 W/m 12,9 km/h (3 Bft) 97,87 %
05.10.2023 10:54 14,7 C 14,4 C 11,1 C 87 % 1025,6 hPa 0,0 l/m 0 min 0 min 163 W/m 16,1 km/h (3 Bft) 98,21 %
05.10.2023 10:56 14,8 C 15,0 C 11,1 C 87 % 1025,7 hPa 0,0 l/m 0 min 0 min 170 W/m 12,9 km/h (3 Bft) 95,65 %
05.10.2023 10:58 14,8 C 15,0 C 11,1 C 87 % 1025,6 hPa 0,0 l/m 0 min 0 min 180 W/m 6,4 km/h (2 Bft) 97,87 %
05.10.2023 11:00 14,8 C 15,0 C 11,1 C 87 % 1025,6 hPa 0,0 l/m 0 min 0 min 188 W/m 9,7 km/h (2 Bft) 97,87 %
05.10.2023 11:02 14,9 C 15,0 C 11,1 C 87 % 1025,5 hPa 0,0 l/m 0 min 0 min 197 W/m 6,4 km/h (2 Bft) 95,74 %
05.10.2023 11:04 14,9 C 15,6 C 11,1 C 87 % 1025,6 hPa 0,0 l/m 0 min 0 min 214 W/m 3,2 km/h (1 Bft) 97,73 %
05.10.2023 11:06 15,0 C 15,6 C 11,7 C 87 % 1025,7 hPa 0,0 l/m 0 min 0 min 215 W/m 6,4 km/h (2 Bft) 98,11 %
05.10.2023 11:08 15,1 C 15,6 C 11,7 C 86 % 1025,7 hPa 0,0 l/m 0 min 0 min 211 W/m 9,7 km/h (2 Bft) 97,87 %
05.10.2023 11:10 15,1 C 15,6 C 11,7 C 87 % 1025,7 hPa 0,0 l/m 0 min 0 min 211 W/m 16,1 km/h (3 Bft) 100,00 %
05.10.2023 11:12 15,2 C 15,6 C 11,7 C 86 % 1025,7 hPa 0,0 l/m 0 min 0 min 211 W/m 16,1 km/h (3 Bft) 100,00 %
05.10.2023 11:14 15,2 C 15,6 C 11,7 C 86 % 1025,7 hPa 0,0 l/m 2 min 0 min 233 W/m 6,4 km/h (2 Bft) 97,87 %
05.10.2023 11:16 15,2 C 15,6 C 11,7 C 86 % 1025,7 hPa 0,0 l/m 0 min 0 min 212 W/m 12,9 km/h (3 Bft) 97,87 %
05.10.2023 11:18 15,3 C 15,6 C 11,7 C 85 % 1025,7 hPa 0,0 l/m 0 min 0 min 215 W/m 12,9 km/h (3 Bft) 97,87 %
05.10.2023 11:20 15,3 C 15,6 C 11,7 C 85 % 1025,8 hPa 0,0 l/m 0 min 0 min 223 W/m 19,3 km/h (3 Bft) 100,00 %
05.10.2023 11:22 15,3 C 15,6 C 11,7 C 85 % 1025,8 hPa 0,0 l/m 0 min 0 min 217 W/m 12,9 km/h (3 Bft) 97,87 %
05.10.2023 11:24 15,3 C 15,6 C 11,7 C 85 % 1025,8 hPa 0,0 l/m 0 min 0 min 194 W/m 12,9 km/h (3 Bft) 97,87 %
05.10.2023 11:26 15,3 C 15,6 C 11,7 C 85 % 1025,8 hPa 0,0 l/m 0 min 0 min 198 W/m 19,3 km/h (3 Bft) 97,83 %
05.10.2023 11:28 15,3 C 15,6 C 11,7 C 84 % 1025,8 hPa 0,0 l/m 0 min 0 min 195 W/m 16,1 km/h (3 Bft) 97,87 %
05.10.2023 11:30 15,3 C 15,6 C 11,7 C 84 % 1025,9 hPa 0,0 l/m 0 min 0 min 186 W/m 6,4 km/h (2 Bft) 97,87 %
05.10.2023 11:32 15,4 C 15,6 C 11,7 C 85 % 1026,0 hPa 0,0 l/m 0 min 0 min 185 W/m 16,1 km/h (3 Bft) 95,74 %
05.10.2023 11:34 15,4 C 15,6 C 11,7 C 85 % 1026,0 hPa 0,0 l/m 0 min 0 min 189 W/m 19,3 km/h (3 Bft) 93,62 %
05.10.2023 11:36 15,4 C 15,6 C 11,7 C 84 % 1025,9 hPa 0,0 l/m 0 min 0 min 196 W/m 16,1 km/h (3 Bft) 97,87 %
05.10.2023 11:38 15,4 C 15,6 C 11,7 C 84 % 1026,0 hPa 0,0 l/m 0 min 0 min 202 W/m 16,1 km/h (3 Bft) 97,87 %
05.10.2023 11:40 15,4 C 15,6 C 11,7 C 85 % 1026,1 hPa 0,0 l/m 0 min 0 min 202 W/m 16,1 km/h (3 Bft) 95,74 %
05.10.2023 11:42 15,4 C 15,6 C 11,7 C 84 % 1026,1 hPa 0,0 l/m 0 min 0 min 200 W/m 12,9 km/h (3 Bft) 97,83 %
05.10.2023 11:44 15,4 C 15,6 C 11,7 C 84 % 1026,2 hPa 0,0 l/m 0 min 0 min 199 W/m 12,9 km/h (3 Bft) 97,87 %
05.10.2023 11:46 15,4 C 15,6 C 11,7 C 84 % 1026,2 hPa 0,0 l/m 0 min 0 min 199 W/m 12,9 km/h (3 Bft) 95,74 %
05.10.2023 11:48 15,4 C 15,6 C 11,7 C 84 % 1026,2 hPa 0,0 l/m 0 min 0 min 198 W/m 22,5 km/h (4 Bft) 95,74 %
05.10.2023 11:50 15,4 C 15,6 C 11,7 C 84 % 1026,3 hPa 0,0 l/m 0 min 0 min 197 W/m 6,4 km/h (2 Bft) 97,14 %
05.10.2023 11:52 15,5 C 15,6 C 11,7 C 84 % 1026,3 hPa 0,0 l/m 0 min 0 min 198 W/m 12,9 km/h (3 Bft) 91,53 %
05.10.2023 11:54 15,5 C 15,6 C 11,7 C 84 % 1026,3 hPa 0,0 l/m 0 min 0 min 197 W/m 12,9 km/h (3 Bft) 97,50 %
05.10.2023 11:56 15,5 C 15,6 C 11,7 C 84 % 1026,4 hPa 0,0 l/m 0 min 0 min 197 W/m 12,9 km/h (3 Bft) 97,87 %
05.10.2023 11:58 15,5 C 15,6 C 11,7 C 84 % 1026,4 hPa 0,0 l/m 0 min 0 min 195 W/m 12,9 km/h (3 Bft) 97,87 %
05.10.2023 12:00 15,6 C 15,6 C 11,7 C 84 % 1026,3 hPa 0,0 l/m 0 min 0 min 195 W/m 9,7 km/h (2 Bft) 95,74 %
05.10.2023 12:02 15,6 C 15,6 C 11,7 C 84 % 1026,4 hPa 0,0 l/m 0 min 0 min 194 W/m 9,7 km/h (2 Bft) 100,00 %
05.10.2023 12:04 15,6 C 15,6 C 11,7 C 84 % 1026,3 hPa 0,0 l/m 0 min 0 min 195 W/m 6,4 km/h (2 Bft) 97,96 %
05.10.2023 12:08 15,6 C 15,6 C 11,7 C 84 % 1026,3 hPa 0,0 l/m 0 min 0 min 197 W/m 12,9 km/h (3 Bft) 98,84 %
05.10.2023 12:10 15,6 C 15,6 C 11,7 C 84 % 1026,3 hPa 0,0 l/m 0 min 0 min 197 W/m 12,9 km/h (3 Bft) 95,74 %
05.10.2023 12:12 15,6 C 15,6 C 11,7 C 84 % 1026,4 hPa 0,0 l/m 0 min 0 min 195 W/m 12,9 km/h (3 Bft) 100,00 %
05.10.2023 12:16 15,6 C 15,6 C 11,7 C 84 % 1026,3 hPa 0,0 l/m 0 min 0 min 193 W/m 12,9 km/h (3 Bft) 96,81 %
05.10.2023 12:18 15,7 C 15,6 C 11,7 C 84 % 1026,2 hPa 0,0 l/m 0 min 0 min 192 W/m 6,4 km/h (2 Bft) 97,87 %
05.10.2023 12:20 15,7 C 15,6 C 11,7 C 84 % 1026,2 hPa 0,0 l/m 0 min 0 min 191 W/m 12,9 km/h (3 Bft) 97,83 %
05.10.2023 12:22 15,7 C 15,6 C 11,7 C 84 % 1026,2 hPa 0,0 l/m 0 min 0 min 189 W/m 6,4 km/h (2 Bft) 95,74 %
05.10.2023 12:24 15,8 C 15,6 C 11,7 C 84 % 1026,1 hPa 0,0 l/m 0 min 0 min 186 W/m 12,9 km/h (3 Bft) 97,87 %
05.10.2023 12:26 15,8 C 15,6 C 11,7 C 84 % 1026,1 hPa 0,0 l/m 0 min 0 min 184 W/m 6,4 km/h (2 Bft) 97,87 %
05.10.2023 12:28 15,8 C 15,6 C 11,7 C 84 % 1026,2 hPa 0,0 l/m 0 min 0 min 181 W/m 22,5 km/h (4 Bft) 91,49 %
05.10.2023 12:30 15,8 C 15,6 C 11,7 C 83 % 1026,1 hPa 0,0 l/m 0 min 0 min 179 W/m 6,4 km/h (2 Bft) 97,87 %
05.10.2023 12:32 15,8 C 15,6 C 11,7 C 83 % 1026,1 hPa 0,0 l/m 0 min 0 min 178 W/m 12,9 km/h (3 Bft) 95,74 %
05.10.2023 12:34 15,8 C 15,6 C 11,7 C 83 % 1026,1 hPa 0,0 l/m 0 min 0 min 179 W/m 6,4 km/h (2 Bft) 97,83 %
05.10.2023 12:36 15,8 C 15,6 C 11,7 C 83 % 1026,1 hPa 0,0 l/m 0 min 0 min 181 W/m 12,9 km/h (3 Bft) 97,87 %
05.10.2023 12:38 15,8 C 15,6 C 11,7 C 83 % 1026,1 hPa 0,0 l/m 0 min 0 min 185 W/m 12,9 km/h (3 Bft) 97,87 %
05.10.2023 12:40 15,8 C 15,6 C 11,7 C 83 % 1026,1 hPa 0,0 l/m 0 min 0 min 186 W/m 6,4 km/h (2 Bft) 95,74 %
05.10.2023 12:42 15,9 C 15,6 C 11,7 C 83 % 1026,1 hPa 0,0 l/m 0 min 0 min 185 W/m 9,7 km/h (2 Bft) 97,87 %
05.10.2023 12:44 15,9 C 15,6 C 11,7 C 83 % 1026,2 hPa 0,0 l/m 0 min 0 min 186 W/m 6,4 km/h (2 Bft) 93,62 %
05.10.2023 12:46 15,9 C 15,6 C 11,7 C 83 % 1026,2 hPa 0,0 l/m 0 min 0 min 186 W/m 12,9 km/h (3 Bft) 95,74 %
05.10.2023 12:48 15,9 C 15,6 C 12,2 C 83 % 1026,2 hPa 0,0 l/m 0 min 0 min 185 W/m 9,7 km/h (2 Bft) 97,87 %
05.10.2023 12:50 15,9 C 15,6 C 12,2 C 83 % 1026,2 hPa 0,0 l/m 0 min 0 min 186 W/m 9,7 km/h (2 Bft) 97,87 %
05.10.2023 12:52 15,9 C 15,6 C 12,2 C 83 % 1026,2 hPa 0,0 l/m 0 min 0 min 187 W/m 3,2 km/h (1 Bft) 95,65 %
05.10.2023 12:54 16,0 C 15,6 C 12,2 C 83 % 1026,3 hPa 0,0 l/m 0 min 0 min 189 W/m 16,1 km/h (3 Bft) 96,49 %
05.10.2023 12:56 16,0 C 15,6 C 12,2 C 83 % 1026,2 hPa 0,0 l/m 0 min 0 min 188 W/m 16,1 km/h (3 Bft) 97,83 %
05.10.2023 12:58 15,9 C 15,6 C 12,2 C 83 % 1026,2 hPa 0,0 l/m 0 min 0 min 190 W/m 12,9 km/h (3 Bft) 93,62 %
05.10.2023 13:00 15,9 C 15,6 C 12,2 C 83 % 1026,2 hPa 0,0 l/m 0 min 0 min 194 W/m 19,3 km/h (3 Bft) 95,74 %
05.10.2023 13:02 15,9 C 15,6 C 12,2 C 83 % 1026,2 hPa 0,0 l/m 0 min 0 min 196 W/m 12,9 km/h (3 Bft) 93,62 %
05.10.2023 13:04 16,0 C 16,1 C 12,2 C 83 % 1026,1 hPa 0,0 l/m 0 min 0 min 202 W/m 9,7 km/h (2 Bft) 97,06 %
05.10.2023 13:08 16,1 C 16,1 C 12,2 C 83 % 1026,0 hPa 0,0 l/m 0 min 0 min 209 W/m 12,9 km/h (3 Bft) 94,17 %
05.10.2023 13:09 16,1 C 16,1 C 12,2 C 83 % 1026,1 hPa 0,0 l/m 0 min 0 min 212 W/m 6,4 km/h (2 Bft) 100,00 %
05.10.2023 13:10 16,1 C 16,1 C 12,2 C 83 % 1026,1 hPa 0,0 l/m 0 min 0 min 211 W/m 12,9 km/h (3 Bft) 96,49 %
05.10.2023 13:14 16,1 C 16,1 C 12,2 C 82 % 1026,0 hPa 0,0 l/m 0 min 0 min 214 W/m 12,9 km/h (3 Bft) 97,87 %
05.10.2023 13:16 16,1 C 16,1 C 12,2 C 83 % 1026,0 hPa 0,0 l/m 0 min 0 min 213 W/m 12,9 km/h (3 Bft) 97,87 %
05.10.2023 13:18 16,2 C 16,1 C 12,2 C 83 % 1026,1 hPa 0,0 l/m 0 min 0 min 214 W/m 12,9 km/h (3 Bft) 95,74 %
05.10.2023 13:20 16,2 C 16,1 C 12,2 C 82 % 1026,1 hPa 0,0 l/m 0 min 0 min 216 W/m 12,9 km/h (3 Bft) 97,83 %
05.10.2023 13:22 16,2 C 16,1 C 12,2 C 82 % 1026,0 hPa 0,0 l/m 0 min 0 min 218 W/m 16,1 km/h (3 Bft) 97,87 %
05.10.2023 13:24 16,2 C 16,7 C 12,2 C 82 % 1025,9 hPa 0,0 l/m 0 min 0 min 220 W/m 6,4 km/h (2 Bft) 93,62 %
05.10.2023 13:26 16,3 C 16,1 C 12,2 C 82 % 1025,9 hPa 0,0 l/m 0 min 0 min 223 W/m 19,3 km/h (3 Bft) 97,87 %
05.10.2023 13:28 16,2 C 16,1 C 12,2 C 82 % 1025,9 hPa 0,0 l/m 0 min 0 min 221 W/m 16,1 km/h (3 Bft) 95,74 %
05.10.2023 13:30 16,3 C 16,7 C 12,2 C 82 % 1025,9 hPa 0,0 l/m 0 min 0 min 226 W/m 6,4 km/h (2 Bft) 97,87 %
05.10.2023 13:32 16,3 C 16,7 C 12,2 C 82 % 1026,0 hPa 0,0 l/m 0 min 0 min 226 W/m 9,7 km/h (2 Bft) 96,49 %
05.10.2023 13:34 16,3 C 16,7 C 12,2 C 82 % 1026,0 hPa 0,0 l/m 0 min 0 min 220 W/m 9,7 km/h (2 Bft) 95,74 %
05.10.2023 13:36 16,4 C 16,7 C 12,8 C 82 % 1025,9 hPa 0,0 l/m 0 min 0 min 224 W/m 9,7 km/h (2 Bft) 95,74 %
05.10.2023 13:38 16,5 C 16,7 C 12,8 C 82 % 1025,9 hPa 0,0 l/m 0 min 0 min 219 W/m 9,7 km/h (2 Bft) 93,62 %
05.10.2023 13:40 16,6 C 16,7 C 12,8 C 82 % 1025,9 hPa 0,0 l/m 0 min 0 min 207 W/m 12,9 km/h (3 Bft) 95,74 %
05.10.2023 13:42 16,6 C 16,7 C 12,8 C 82 % 1025,8 hPa 0,0 l/m 0 min 0 min 197 W/m 9,7 km/h (2 Bft) 93,62 %
05.10.2023 13:44 16,7 C 16,7 C 12,8 C 82 % 1025,8 hPa 0,0 l/m 0 min 0 min 189 W/m 6,4 km/h (2 Bft) 97,83 %
05.10.2023 13:46 16,7 C 16,7 C 12,8 C 81 % 1025,8 hPa 0,0 l/m 0 min 0 min 192 W/m 9,7 km/h (2 Bft) 95,74 %
05.10.2023 13:48 16,7 C 16,7 C 12,8 C 81 % 1025,8 hPa 0,0 l/m 0 min 0 min 187 W/m 9,7 km/h (2 Bft) 97,87 %
05.10.2023 13:50 16,7 C 16,7 C 12,8 C 81 % 1025,8 hPa 0,0 l/m 0 min 0 min 191 W/m 12,9 km/h (3 Bft) 93,62 %
05.10.2023 13:52 16,8 C 16,7 C 12,8 C 80 % 1025,8 hPa 0,0 l/m 0 min 0 min 205 W/m 12,9 km/h (3 Bft) 95,74 %
05.10.2023 13:54 16,8 C 16,7 C 12,8 C 80 % 1025,7 hPa 0,0 l/m 0 min 0 min 195 W/m 12,9 km/h (3 Bft) 100,00 %
05.10.2023 13:56 16,8 C 16,7 C 12,8 C 80 % 1025,7 hPa 0,0 l/m 0 min 0 min 235 W/m 12,9 km/h (3 Bft) 95,74 %
05.10.2023 13:58 16,9 C 17,2 C 12,8 C 81 % 1025,7 hPa 0,0 l/m 0 min 0 min 252 W/m 9,7 km/h (2 Bft) 97,92 %
05.10.2023 14:00 16,9 C 17,2 C 12,8 C 81 % 1025,7 hPa 0,0 l/m 2 min 0 min 307 W/m 9,7 km/h (2 Bft) 100,00 %
05.10.2023 14:04 17,1 C 17,2 C 12,8 C 80 % 1025,7 hPa 0,0 l/m 4 min 0 min 459 W/m 16,1 km/h (3 Bft) 100,00 %
05.10.2023 14:07 17,1 C 16,7 C 12,8 C 79 % 1025,8 hPa 0,0 l/m 0 min 0 min 176 W/m 16,1 km/h (3 Bft) 100,00 %
05.10.2023 14:08 17,1 C 16,7 C 12,8 C 79 % 1025,8 hPa 0,0 l/m 0 min 0 min 190 W/m 12,9 km/h (3 Bft) 100,00 %
05.10.2023 14:10 17,1 C 17,2 C 12,8 C 79 % 1025,8 hPa 0,0 l/m 0 min 0 min 190 W/m 12,9 km/h (3 Bft) 100,00 %
05.10.2023 14:12 17,1 C 17,8 C 12,8 C 79 % 1025,8 hPa 0,0 l/m 0 min 0 min 212 W/m 16,1 km/h (3 Bft) 97,87 %
05.10.2023 14:14 17,1 C 17,2 C 12,8 C 79 % 1025,8 hPa 0,0 l/m 0 min 0 min 214 W/m 9,7 km/h (2 Bft) 100,00 %
05.10.2023 14:16 17,1 C 18,3 C 12,8 C 79 % 1025,8 hPa 0,0 l/m 2 min 0 min 327 W/m 16,1 km/h (3 Bft) 100,00 %
05.10.2023 14:18 17,2 C 18,9 C 12,8 C 79 % 1025,8 hPa 0,0 l/m 2 min 0 min 544 W/m 12,9 km/h (3 Bft) 97,87 %
05.10.2023 14:20 17,3 C 18,9 C 12,8 C 78 % 1025,9 hPa 0,0 l/m 2 min 0 min 596 W/m 12,9 km/h (3 Bft) 100,00 %
05.10.2023 14:22 17,3 C 18,3 C 13,3 C 78 % 1025,8 hPa 0,0 l/m 2 min 0 min 622 W/m 9,7 km/h (2 Bft) 100,00 %
05.10.2023 14:24 17,4 C 18,3 C 13,3 C 78 % 1025,9 hPa 0,0 l/m 2 min 0 min 647 W/m 9,7 km/h (2 Bft) 100,00 %
05.10.2023 14:26 17,4 C 18,3 C 13,3 C 78 % 1025,8 hPa 0,0 l/m 2 min 0 min 598 W/m 9,7 km/h (2 Bft) 100,00 %
05.10.2023 14:28 17,6 C 18,3 C 13,3 C 78 % 1025,8 hPa 0,0 l/m 2 min 0 min 598 W/m 12,9 km/h (3 Bft) 100,00 %
05.10.2023 14:30 17,6 C 18,3 C 13,3 C 77 % 1025,8 hPa 0,0 l/m 2 min 0 min 661 W/m 9,7 km/h (2 Bft) 100,00 %
05.10.2023 14:32 17,7 C 18,3 C 13,3 C 77 % 1025,8 hPa 0,0 l/m 2 min 0 min 627 W/m 12,9 km/h (3 Bft) 97,14 %
05.10.2023 14:34 17,8 C 18,3 C 13,3 C 78 % 1025,8 hPa 0,0 l/m 2 min 0 min 609 W/m 9,7 km/h (2 Bft) 100,00 %
05.10.2023 14:36 17,8 C 17,8 C 13,3 C 77 % 1025,7 hPa 0,0 l/m 2 min 0 min 622 W/m 16,1 km/h (3 Bft) 100,00 %
05.10.2023 14:38 17,9 C 17,8 C 13,3 C 76 % 1025,8 hPa 0,0 l/m 2 min 0 min 619 W/m 16,1 km/h (3 Bft) 100,00 %
05.10.2023 14:40 17,9 C 17,8 C 13,3 C 76 % 1025,8 hPa 0,0 l/m 2 min 0 min 635 W/m 6,4 km/h (2 Bft) 97,87 %
05.10.2023 14:42 17,9 C 17,8 C 13,3 C 76 % 1025,9 hPa 0,0 l/m 2 min 0 min 439 W/m 12,9 km/h (3 Bft) 100,00 %
05.10.2023 14:44 17,9 C 17,8 C 13,3 C 76 % 1025,9 hPa 0,0 l/m 2 min 0 min 309 W/m 6,4 km/h (2 Bft) 100,00 %
05.10.2023 14:46 17,9 C 17,8 C 13,3 C 76 % 1025,9 hPa 0,0 l/m 0 min 0 min 202 W/m 6,4 km/h (2 Bft) 100,00 %
05.10.2023 14:48 17,9 C 17,8 C 13,3 C 76 % 1025,9 hPa 0,0 l/m 2 min 0 min 445 W/m 12,9 km/h (3 Bft) 100,00 %
05.10.2023 14:50 17,9 C 17,8 C 13,3 C 76 % 1025,9 hPa 0,0 l/m 2 min 0 min 611 W/m 12,9 km/h (3 Bft) 100,00 %
05.10.2023 14:52 17,9 C 17,8 C 13,3 C 76 % 1025,9 hPa 0,0 l/m 2 min 0 min 606 W/m 12,9 km/h (3 Bft) 97,87 %
05.10.2023 14:54 17,9 C 17,8 C 13,3 C 76 % 1025,9 hPa 0,0 l/m 2 min 0 min 598 W/m 9,7 km/h (2 Bft) 100,00 %
05.10.2023 14:56 18,0 C 17,8 C 13,3 C 77 % 1025,9 hPa 0,0 l/m 2 min 0 min 644 W/m 6,4 km/h (2 Bft) 100,00 %
05.10.2023 14:58 18,1 C 18,3 C 13,9 C 76 % 1025,9 hPa 0,0 l/m 2 min 0 min 659 W/m 6,4 km/h (2 Bft) 97,87 %
05.10.2023 15:00 18,1 C 18,3 C 13,9 C 76 % 1025,9 hPa 0,0 l/m 2 min 0 min 380 W/m 12,9 km/h (3 Bft) 100,00 %
05.10.2023 15:02 18,2 C 18,3 C 13,9 C 77 % 1025,8 hPa 0,0 l/m 2 min 0 min 287 W/m 12,9 km/h (3 Bft) 100,00 %
05.10.2023 15:04 18,2 C 17,8 C 13,9 C 76 % 1025,9 hPa 0,0 l/m 2 min 0 min 412 W/m 9,7 km/h (2 Bft) 100,00 %
05.10.2023 15:06 18,1 C 17,8 C 13,3 C 75 % 1025,9 hPa 0,0 l/m 0 min 0 min 115 W/m 12,9 km/h (3 Bft) 100,00 %
05.10.2023 15:08 18,1 C 17,8 C 13,3 C 75 % 1025,9 hPa 0,0 l/m 0 min 0 min 104 W/m 3,2 km/h (1 Bft) 97,87 %
05.10.2023 15:10 18,1 C 17,8 C 13,3 C 74 % 1025,9 hPa 0,0 l/m 0 min 0 min 227 W/m 12,9 km/h (3 Bft) 100,00 %
05.10.2023 15:12 18,2 C 18,3 C 13,3 C 75 % 1025,9 hPa 0,0 l/m 2 min 0 min 358 W/m 9,7 km/h (2 Bft) 100,00 %
05.10.2023 15:14 18,2 C 18,3 C 13,9 C 75 % 1025,9 hPa 0,0 l/m 2 min 0 min 330 W/m 9,7 km/h (2 Bft) 95,74 %
05.10.2023 15:16 18,2 C 18,3 C 13,9 C 75 % 1025,9 hPa 0,0 l/m 2 min 0 min 337 W/m 12,9 km/h (3 Bft) 100,00 %
05.10.2023 15:18 18,2 C 18,3 C 13,9 C 75 % 1025,9 hPa 0,0 l/m 2 min 0 min 345 W/m 12,9 km/h (3 Bft) 100,00 %
05.10.2023 15:20 18,3 C 18,3 C 13,9 C 75 % 1025,8 hPa 0,0 l/m 2 min 0 min 344 W/m 12,9 km/h (3 Bft) 95,74 %
05.10.2023 15:22 18,2 C 17,8 C 13,9 C 74 % 1025,8 hPa 0,0 l/m 0 min 0 min 136 W/m 12,9 km/h (3 Bft) 97,14 %
05.10.2023 15:24 18,2 C 17,8 C 13,9 C 74 % 1025,8 hPa 0,0 l/m 0 min 0 min 184 W/m 16,1 km/h (3 Bft) 93,88 %
05.10.2023 15:26 18,2 C 17,8 C 13,9 C 74 % 1025,8 hPa 0,0 l/m 0 min 0 min 199 W/m 12,9 km/h (3 Bft) 97,87 %
05.10.2023 15:28 18,1 C 17,8 C 13,3 C 74 % 1025,8 hPa 0,0 l/m 0 min 0 min 212 W/m 12,9 km/h (3 Bft) 97,87 %
05.10.2023 15:30 18,1 C 17,8 C 13,3 C 74 % 1025,8 hPa 0,0 l/m 0 min 0 min 179 W/m 9,7 km/h (2 Bft) 97,87 %
05.10.2023 15:32 18,1 C 17,8 C 13,3 C 75 % 1025,8 hPa 0,0 l/m 0 min 0 min 181 W/m 12,9 km/h (3 Bft) 95,65 %
05.10.2023 15:34 18,1 C 17,8 C 13,3 C 75 % 1025,8 hPa 0,0 l/m 0 min 0 min 216 W/m 9,7 km/h (2 Bft) 95,74 %
05.10.2023 15:36 18,1 C 17,8 C 13,3 C 75 % 1025,8 hPa 0,0 l/m 2 min 0 min 263 W/m 16,1 km/h (3 Bft) 95,74 %
05.10.2023 15:38 18,1 C 18,3 C 13,3 C 76 % 1025,7 hPa 0,0 l/m 2 min 0 min 378 W/m 22,5 km/h (4 Bft) 95,74 %
05.10.2023 15:40 18,1 C 18,3 C 13,3 C 75 % 1025,8 hPa 0,0 l/m 2 min 0 min 395 W/m 22,5 km/h (4 Bft) 93,62 %
05.10.2023 15:42 18,1 C 18,3 C 13,9 C 75 % 1025,8 hPa 0,0 l/m 2 min 0 min 353 W/m 12,9 km/h (3 Bft) 93,62 %
05.10.2023 15:44 18,1 C 18,3 C 13,9 C 75 % 1025,8 hPa 0,0 l/m 2 min 0 min 258 W/m 6,4 km/h (2 Bft) 93,48 %
05.10.2023 15:46 18,2 C 18,3 C 13,9 C 74 % 1025,9 hPa 0,0 l/m 2 min 0 min 338 W/m 16,1 km/h (3 Bft) 95,74 %
05.10.2023 15:48 18,2 C 18,3 C 13,9 C 74 % 1025,8 hPa 0,0 l/m 2 min 0 min 404 W/m 19,3 km/h (3 Bft) 95,74 %
05.10.2023 15:50 18,2 C 18,3 C 13,9 C 74 % 1025,9 hPa 0,0 l/m 2 min 0 min 395 W/m 16,1 km/h (3 Bft) 93,62 %
05.10.2023 15:52 18,2 C 18,3 C 13,9 C 73 % 1025,9 hPa 0,0 l/m 2 min 0 min 372 W/m 22,5 km/h (4 Bft) 93,62 %
05.10.2023 15:54 18,2 C 17,8 C 13,9 C 73 % 1025,9 hPa 0,0 l/m 2 min 0 min 272 W/m 12,9 km/h (3 Bft) 91,67 %
05.10.2023 15:56 18,2 C 17,8 C 13,9 C 73 % 1025,8 hPa 0,0 l/m 2 min 0 min 270 W/m 12,9 km/h (3 Bft) 91,49 %
05.10.2023 15:58 18,2 C 18,3 C 13,9 C 74 % 1025,8 hPa 0,0 l/m 2 min 0 min 336 W/m 9,7 km/h (2 Bft) 95,74 %
05.10.2023 16:00 18,2 C 18,3 C 13,9 C 74 % 1025,9 hPa 0,0 l/m 2 min 0 min 271 W/m 12,9 km/h (3 Bft) 93,48 %
05.10.2023 16:02 18,3 C 18,3 C 13,9 C 74 % 1025,9 hPa 0,0 l/m 2 min 0 min 243 W/m 9,7 km/h (2 Bft) 95,74 %
05.10.2023 16:04 18,3 C 18,3 C 13,9 C 74 % 1025,8 hPa 0,0 l/m 0 min 0 min 173 W/m 16,1 km/h (3 Bft) 91,11 %
05.10.2023 16:08 18,2 C 17,8 C 13,9 C 73 % 1025,8 hPa 0,0 l/m 0 min 0 min 197 W/m 12,9 km/h (3 Bft) 92,31 %
05.10.2023 16:09 18,2 C 17,8 C 13,9 C 73 % 1025,8 hPa 0,0 l/m 1 min 0 min 289 W/m 16,1 km/h (3 Bft) 95,65 %
05.10.2023 16:12 18,2 C 18,3 C 13,9 C 73 % 1025,8 hPa 0,0 l/m 3 min 0 min 335 W/m 12,9 km/h (3 Bft) 94,29 %
05.10.2023 16:14 18,2 C 18,3 C 13,9 C 74 % 1025,8 hPa 0,0 l/m 2 min 0 min 337 W/m 16,1 km/h (3 Bft) 95,74 %
05.10.2023 16:16 18,2 C 18,3 C 13,9 C 73 % 1025,7 hPa 0,0 l/m 2 min 0 min 353 W/m 12,9 km/h (3 Bft) 93,62 %
05.10.2023 16:18 18,2 C 18,3 C 13,9 C 73 % 1025,8 hPa 0,0 l/m 2 min 0 min 350 W/m 12,9 km/h (3 Bft) 97,87 %
05.10.2023 16:20 18,2 C 18,3 C 13,9 C 73 % 1025,7 hPa 0,0 l/m 2 min 0 min 359 W/m 9,7 km/h (2 Bft) 95,74 %
05.10.2023 16:22 18,2 C 18,3 C 13,9 C 73 % 1025,7 hPa 0,0 l/m 2 min 0 min 366 W/m 6,4 km/h (2 Bft) 93,62 %
05.10.2023 16:24 18,3 C 18,3 C 13,9 C 74 % 1025,7 hPa 0,0 l/m 2 min 0 min 411 W/m 12,9 km/h (3 Bft) 95,65 %
05.10.2023 16:26 18,3 C 18,3 C 13,9 C 74 % 1025,6 hPa 0,0 l/m 2 min 0 min 422 W/m 6,4 km/h (2 Bft) 95,74 %
05.10.2023 16:28 18,4 C 18,3 C 13,9 C 74 % 1025,7 hPa 0,0 l/m 2 min 0 min 402 W/m 12,9 km/h (3 Bft) 100,00 %
05.10.2023 16:30 18,4 C 18,3 C 13,9 C 73 % 1025,7 hPa 0,0 l/m 2 min 0 min 373 W/m 12,9 km/h (3 Bft) 100,00 %
05.10.2023 16:32 18,4 C 18,3 C 13,9 C 73 % 1025,7 hPa 0,0 l/m 2 min 0 min 336 W/m 16,1 km/h (3 Bft) 100,00 %
05.10.2023 16:34 18,4 C 18,3 C 13,9 C 73 % 1025,6 hPa 0,0 l/m 2 min 0 min 407 W/m 6,4 km/h (2 Bft) 100,00 %
05.10.2023 16:36 18,4 C 18,3 C 13,9 C 73 % 1025,6 hPa 0,0 l/m 2 min 0 min 391 W/m 9,7 km/h (2 Bft) 100,00 %
05.10.2023 16:38 18,4 C 18,3 C 13,9 C 73 % 1025,6 hPa 0,0 l/m 2 min 0 min 375 W/m 12,9 km/h (3 Bft) 100,00 %
05.10.2023 16:40 18,5 C 18,3 C 13,9 C 73 % 1025,6 hPa 0,0 l/m 2 min 0 min 332 W/m 12,9 km/h (3 Bft) 100,00 %
05.10.2023 16:42 18,5 C 18,3 C 13,9 C 72 % 1025,6 hPa 0,0 l/m 2 min 0 min 324 W/m 16,1 km/h (3 Bft) 97,87 %
05.10.2023 16:44 18,4 C 17,8 C 13,9 C 72 % 1025,6 hPa 0,0 l/m 2 min 0 min 305 W/m 16,1 km/h (3 Bft) 100,00 %
05.10.2023 16:46 18,4 C 17,8 C 13,9 C 71 % 1025,5 hPa 0,0 l/m 2 min 0 min 226 W/m 12,9 km/h (3 Bft) 100,00 %
05.10.2023 16:48 18,4 C 17,8 C 13,9 C 72 % 1025,5 hPa 0,0 l/m 2 min 0 min 260 W/m 0,0 km/h (0 Bft) 100,00 %
05.10.2023 16:50 18,4 C 17,8 C 13,9 C 73 % 1025,5 hPa 0,0 l/m 2 min 0 min 257 W/m 0,0 km/h (0 Bft) 100,00 %
05.10.2023 16:52 18,3 C 17,8 C 13,3 C 72 % 1025,6 hPa 0,0 l/m 2 min 0 min 235 W/m 16,1 km/h (3 Bft) 100,00 %
05.10.2023 16:54 18,3 C 17,8 C 13,3 C 71 % 1025,6 hPa 0,0 l/m 2 min 0 min 235 W/m 25,7 km/h (4 Bft) 100,00 %
05.10.2023 16:56 18,3 C 17,8 C 13,3 C 72 % 1025,5 hPa 0,0 l/m 2 min 0 min 178 W/m 6,4 km/h (2 Bft) 100,00 %
05.10.2023 16:58 18,2 C 17,8 C 13,3 C 72 % 1025,5 hPa 0,0 l/m 2 min 0 min 152 W/m 16,1 km/h (3 Bft) 95,65 %
05.10.2023 17:00 18,2 C 17,8 C 13,3 C 72 % 1025,5 hPa 0,0 l/m 2 min 0 min 148 W/m 6,4 km/h (2 Bft) 100,00 %
05.10.2023 17:02 18,2 C 17,8 C 13,3 C 73 % 1025,6 hPa 0,0 l/m 2 min 0 min 170 W/m 12,9 km/h (3 Bft) 97,87 %
05.10.2023 17:04 18,2 C 17,8 C 13,3 C 72 % 1025,6 hPa 0,0 l/m 2 min 0 min 201 W/m 12,9 km/h (3 Bft) 100,00 %
05.10.2023 17:06 18,2 C 17,8 C 13,3 C 72 % 1025,5 hPa 0,0 l/m 2 min 0 min 188 W/m 6,4 km/h (2 Bft) 100,00 %
05.10.2023 17:08 18,2 C 17,8 C 13,3 C 73 % 1025,5 hPa 0,0 l/m 2 min 0 min 193 W/m 9,7 km/h (2 Bft) 100,00 %
05.10.2023 17:10 18,2 C 17,8 C 13,3 C 72 % 1025,5 hPa 0,0 l/m 0 min 0 min 134 W/m 16,1 km/h (3 Bft) 100,00 %
05.10.2023 17:12 18,1 C 17,2 C 13,3 C 72 % 1025,5 hPa 0,0 l/m 2 min 0 min 143 W/m 6,4 km/h (2 Bft) 97,83 %
05.10.2023 17:14 18,1 C 17,2 C 13,3 C 72 % 1025,5 hPa 0,0 l/m 2 min 0 min 152 W/m 16,1 km/h (3 Bft) 100,00 %
05.10.2023 17:16 18,1 C 17,2 C 13,3 C 72 % 1025,5 hPa 0,0 l/m 2 min 0 min 132 W/m 12,9 km/h (3 Bft) 100,00 %
05.10.2023 17:18 18,1 C 17,2 C 13,3 C 72 % 1025,5 hPa 0,0 l/m 2 min 0 min 151 W/m 6,4 km/h (2 Bft) 97,87 %
05.10.2023 17:20 18,0 C 17,2 C 13,3 C 72 % 1025,6 hPa 0,0 l/m 2 min 0 min 148 W/m 12,9 km/h (3 Bft) 100,00 %
05.10.2023 17:22 18,0 C 17,2 C 13,3 C 73 % 1025,5 hPa 0,0 l/m 2 min 0 min 125 W/m 6,4 km/h (2 Bft) 100,00 %
05.10.2023 17:24 17,9 C 17,2 C 13,3 C 73 % 1025,5 hPa 0,0 l/m 2 min 0 min 133 W/m 12,9 km/h (3 Bft) 100,00 %
05.10.2023 17:26 17,9 C 17,2 C 13,3 C 73 % 1025,6 hPa 0,0 l/m 2 min 0 min 155 W/m 16,1 km/h (3 Bft) 97,87 %
05.10.2023 17:28 17,9 C 17,2 C 13,3 C 73 % 1025,5 hPa 0,0 l/m 2 min 0 min 178 W/m 9,7 km/h (2 Bft) 100,00 %
05.10.2023 17:30 17,9 C 17,2 C 12,8 C 73 % 1025,4 hPa 0,0 l/m 2 min 0 min 152 W/m 9,7 km/h (2 Bft) 100,00 %
05.10.2023 17:32 17,9 C 17,2 C 12,8 C 73 % 1025,5 hPa 0,0 l/m 2 min 0 min 163 W/m 6,4 km/h (2 Bft) 95,74 %
05.10.2023 17:34 17,8 C 17,2 C 12,8 C 74 % 1025,5 hPa 0,0 l/m 2 min 0 min 167 W/m 6,4 km/h (2 Bft) 97,87 %
05.10.2023 17:36 17,8 C 17,2 C 12,8 C 73 % 1025,6 hPa 0,0 l/m 2 min 0 min 164 W/m 12,9 km/h (3 Bft) 100,00 %
05.10.2023 17:38 17,8 C 17,2 C 12,8 C 73 % 1025,5 hPa 0,0 l/m 2 min 0 min 136 W/m 12,9 km/h (3 Bft) 100,00 %
05.10.2023 17:40 17,7 C 17,2 C 12,8 C 74 % 1025,5 hPa 0,0 l/m 2 min 0 min 102 W/m 6,4 km/h (2 Bft) 100,00 %
05.10.2023 17:42 17,7 C 17,2 C 12,8 C 74 % 1025,6 hPa 0,0 l/m 2 min 0 min 137 W/m 3,2 km/h (1 Bft) 95,65 %
05.10.2023 17:44 17,7 C 17,2 C 12,8 C 74 % 1025,7 hPa 0,0 l/m 2 min 0 min 142 W/m 12,9 km/h (3 Bft) 97,87 %
05.10.2023 17:46 17,7 C 17,2 C 12,8 C 73 % 1025,6 hPa 0,0 l/m 2 min 0 min 109 W/m 6,4 km/h (2 Bft) 97,87 %
05.10.2023 17:48 17,7 C 17,2 C 12,8 C 73 % 1025,6 hPa 0,0 l/m 0 min 0 min 69 W/m 12,9 km/h (3 Bft) 93,62 %
05.10.2023 17:50 17,7 C 17,2 C 12,8 C 73 % 1025,6 hPa 0,0 l/m 0 min 0 min 57 W/m 6,4 km/h (2 Bft) 97,87 %
05.10.2023 17:52 17,6 C 16,7 C 12,8 C 73 % 1025,7 hPa 0,0 l/m 0 min 0 min 53 W/m 6,4 km/h (2 Bft) 95,74 %
05.10.2023 17:54 17,6 C 16,7 C 12,8 C 73 % 1025,7 hPa 0,0 l/m 0 min 0 min 53 W/m 6,4 km/h (2 Bft) 97,87 %
05.10.2023 17:56 17,6 C 16,7 C 12,8 C 74 % 1025,7 hPa 0,0 l/m 0 min 0 min 49 W/m 6,4 km/h (2 Bft) 97,87 %
05.10.2023 17:58 17,6 C 16,7 C 12,8 C 73 % 1025,7 hPa 0,0 l/m 0 min 0 min 48 W/m 12,9 km/h (3 Bft) 93,48 %
05.10.2023 18:00 17,5 C 16,7 C 12,8 C 73 % 1025,7 hPa 0,0 l/m 0 min 0 min 46 W/m 6,4 km/h (2 Bft) 95,74 %
05.10.2023 18:02 17,5 C 16,7 C 12,8 C 74 % 1025,7 hPa 0,0 l/m 0 min 0 min 45 W/m 6,4 km/h (2 Bft) 95,74 %
05.10.2023 18:04 17,5 C 16,7 C 12,8 C 74 % 1025,7 hPa 0,0 l/m 0 min 0 min 41 W/m 12,9 km/h (3 Bft) 95,45 %
05.10.2023 18:08 17,4 C 16,7 C 12,8 C 74 % 1025,7 hPa 0,0 l/m 0 min 0 min 40 W/m 6,4 km/h (2 Bft) 95,74 %
05.10.2023 18:10 17,4 C 16,7 C 12,8 C 74 % 1025,7 hPa 0,0 l/m 0 min 0 min 39 W/m 3,2 km/h (1 Bft) 93,62 %
05.10.2023 18:12 17,4 C 16,7 C 12,8 C 74 % 1025,7 hPa 0,0 l/m 0 min 0 min 39 W/m 9,7 km/h (2 Bft) 95,65 %
05.10.2023 18:16 17,3 C 16,7 C 12,8 C 75 % 1025,6 hPa 0,0 l/m 0 min 0 min 37 W/m 3,2 km/h (1 Bft) 95,74 %
05.10.2023 18:18 17,3 C 16,7 C 12,8 C 75 % 1025,6 hPa 0,0 l/m 0 min 0 min 37 W/m 9,7 km/h (2 Bft) 91,49 %
05.10.2023 18:20 17,3 C 16,7 C 12,8 C 75 % 1025,7 hPa 0,0 l/m 0 min 0 min 36 W/m 3,2 km/h (1 Bft) 93,62 %
05.10.2023 18:22 17,3 C 16,7 C 12,2 C 75 % 1025,7 hPa 0,0 l/m 0 min 0 min 33 W/m 6,4 km/h (2 Bft) 95,74 %
05.10.2023 18:24 17,3 C 16,1 C 12,2 C 75 % 1025,7 hPa 0,0 l/m 0 min 0 min 32 W/m 3,2 km/h (1 Bft) 95,74 %
05.10.2023 18:26 17,2 C 16,1 C 12,2 C 76 % 1025,7 hPa 0,0 l/m 0 min 0 min 31 W/m 6,4 km/h (2 Bft) 93,48 %
05.10.2023 18:28 17,2 C 16,1 C 12,2 C 76 % 1025,6 hPa 0,0 l/m 0 min 0 min 29 W/m 3,2 km/h (1 Bft) 93,62 %
05.10.2023 18:30 17,2 C 16,1 C 12,2 C 76 % 1025,7 hPa 0,0 l/m 0 min 0 min 27 W/m 3,2 km/h (1 Bft) 95,74 %
05.10.2023 18:32 17,2 C 16,1 C 12,2 C 76 % 1025,6 hPa 0,0 l/m 0 min 0 min 26 W/m 9,7 km/h (2 Bft) 100,00 %
05.10.2023 18:34 17,2 C 16,1 C 12,2 C 76 % 1025,6 hPa 0,0 l/m 0 min 0 min 25 W/m 3,2 km/h (1 Bft) 95,74 %
05.10.2023 18:36 17,1 C 16,1 C 12,2 C 76 % 1025,7 hPa 0,0 l/m 0 min 0 min 23 W/m 3,2 km/h (1 Bft) 97,87 %
05.10.2023 18:38 17,1 C 16,1 C 12,2 C 76 % 1025,8 hPa 0,0 l/m 0 min 0 min 20 W/m 3,2 km/h (1 Bft) 97,87 %
05.10.2023 18:40 17,1 C 16,1 C 12,2 C 77 % 1025,8 hPa 0,0 l/m 0 min 0 min 19 W/m 6,4 km/h (2 Bft) 95,65 %
05.10.2023 18:42 17,0 C 16,1 C 12,2 C 77 % 1025,8 hPa 0,0 l/m 0 min 0 min 18 W/m 6,4 km/h (2 Bft) 95,74 %
05.10.2023 18:44 17,0 C 16,1 C 12,2 C 77 % 1025,8 hPa 0,0 l/m 0 min 0 min 18 W/m 3,2 km/h (1 Bft) 97,87 %
05.10.2023 18:46 16,9 C 15,6 C 12,2 C 77 % 1025,8 hPa 0,0 l/m 0 min 0 min 16 W/m 6,4 km/h (2 Bft) 97,87 %
05.10.2023 18:48 16,9 C 15,6 C 12,2 C 78 % 1025,8 hPa 0,0 l/m 0 min 0 min 16 W/m 6,4 km/h (2 Bft) 97,87 %
05.10.2023 18:50 16,8 C 15,6 C 12,2 C 78 % 1025,8 hPa 0,0 l/m 0 min 0 min 14 W/m 6,4 km/h (2 Bft) 97,87 %
05.10.2023 18:52 16,8 C 15,6 C 11,7 C 78 % 1025,8 hPa 0,0 l/m 0 min 0 min 13 W/m 3,2 km/h (1 Bft) 97,87 %
05.10.2023 18:54 16,7 C 15,6 C 11,7 C 78 % 1025,8 hPa 0,0 l/m 0 min 0 min 11 W/m 6,4 km/h (2 Bft) 98,00 %
05.10.2023 18:56 16,7 C 15,6 C 11,7 C 78 % 1025,8 hPa 0,0 l/m 0 min 0 min 11 W/m 3,2 km/h (1 Bft) 95,74 %
05.10.2023 18:58 16,6 C 15,6 C 11,7 C 79 % 1025,9 hPa 0,0 l/m 0 min 0 min 9 W/m 6,4 km/h (2 Bft) 95,65 %
05.10.2023 19:00 16,6 C 15,6 C 11,7 C 79 % 1025,9 hPa 0,0 l/m 0 min 0 min 8 W/m 3,2 km/h (1 Bft) 97,87 %
05.10.2023 19:02 16,6 C 15,6 C 11,7 C 79 % 1025,9 hPa 0,0 l/m 0 min 0 min 6 W/m 0,0 km/h (0 Bft) 97,87 %
05.10.2023 19:04 16,5 C 15,0 C 11,7 C 79 % 1025,9 hPa 0,0 l/m 0 min 0 min 5 W/m 9,7 km/h (2 Bft) 98,00 %
05.10.2023 19:08 16,4 C 15,0 C 11,7 C 80 % 1025,9 hPa 0,0 l/m 0 min 0 min 1 W/m 6,4 km/h (2 Bft) 97,94 %
05.10.2023 19:09 16,4 C 15,0 C 11,7 C 80 % 1025,9 hPa 0,0 l/m 0 min 0 min 0 W/m 3,2 km/h (1 Bft) 100,00 %
05.10.2023 19:12 16,3 C 15,0 C 11,7 C 80 % 1026,0 hPa 0,0 l/m 0 min 0 min 0 W/m 3,2 km/h (1 Bft) 100,00 %
05.10.2023 19:14 16,3 C 15,0 C 11,1 C 80 % 1025,9 hPa 0,0 l/m 0 min 0 min 0 W/m 3,2 km/h (1 Bft) 100,00 %
05.10.2023 19:16 16,2 C 15,0 C 11,1 C 80 % 1025,9 hPa 0,0 l/m 0 min 0 min 0 W/m 0,0 km/h (0 Bft) 100,00 %
05.10.2023 19:18 16,2 C 15,0 C 11,1 C 81 % 1025,9 hPa 0,0 l/m 0 min 0 min 0 W/m 0,0 km/h (0 Bft) 97,87 %
05.10.2023 19:20 16,2 C 15,0 C 11,1 C 81 % 1026,0 hPa 0,0 l/m 0 min 0 min 0 W/m 0,0 km/h (0 Bft) 100,00 %
05.10.2023 19:22 16,1 C 14,4 C 11,1 C 81 % 1026,0 hPa 0,0 l/m 0 min 0 min 0 W/m 3,2 km/h (1 Bft) 97,87 %
05.10.2023 19:24 16,1 C 14,4 C 11,1 C 81 % 1026,0 hPa 0,0 l/m 0 min 0 min 0 W/m 3,2 km/h (1 Bft) 100,00 %
05.10.2023 19:26 16,1 C 14,4 C 11,1 C 81 % 1026,0 hPa 0,0 l/m 0 min 0 min 0 W/m 0,0 km/h (0 Bft) 100,00 %
05.10.2023 19:28 16,0 C 14,4 C 11,1 C 81 % 1026,1 hPa 0,0 l/m 0 min 0 min 0 W/m 3,2 km/h (1 Bft) 100,00 %
05.10.2023 19:30 15,9 C 14,4 C 11,1 C 82 % 1026,1 hPa 0,0 l/m 0 min 0 min 0 W/m 3,2 km/h (1 Bft) 100,00 %
05.10.2023 19:32 15,9 C 14,4 C 11,1 C 82 % 1026,1 hPa 0,0 l/m 0 min 0 min 0 W/m 3,2 km/h (1 Bft) 100,00 %
05.10.2023 19:34 15,8 C 14,4 C 11,1 C 82 % 1026,1 hPa 0,0 l/m 0 min 0 min 0 W/m 3,2 km/h (1 Bft) 100,00 %
05.10.2023 19:36 15,8 C 14,4 C 11,1 C 82 % 1026,1 hPa 0,0 l/m 0 min 0 min 0 W/m 0,0 km/h (0 Bft) 100,00 %
05.10.2023 19:38 15,8 C 14,4 C 11,1 C 82 % 1026,1 hPa 0,0 l/m 0 min 0 min 0 W/m 0,0 km/h (0 Bft) 100,00 %
05.10.2023 19:40 15,7 C 14,4 C 11,1 C 82 % 1026,2 hPa 0,0 l/m 0 min 0 min 0 W/m 3,2 km/h (1 Bft) 100,00 %
05.10.2023 19:42 15,7 C 14,4 C 11,1 C 82 % 1026,2 hPa 0,0 l/m 0 min 0 min 0 W/m 0,0 km/h (0 Bft) 100,00 %
05.10.2023 19:44 15,7 C 14,4 C 10,6 C 82 % 1026,2 hPa 0,0 l/m 0 min 0 min 0 W/m 3,2 km/h (1 Bft) 85,11 %
05.10.2023 19:46 15,6 C 14,4 C 10,6 C 82 % 1026,1 hPa 0,0 l/m 0 min 0 min 0 W/m 3,2 km/h (1 Bft) 71,11 %
05.10.2023 19:48 15,6 C 14,4 C 10,6 C 82 % 1026,2 hPa 0,0 l/m 0 min 0 min 0 W/m 0,0 km/h (0 Bft) 100,00 %
05.10.2023 19:50 15,6 C 14,4 C 10,6 C 82 % 1026,1 hPa 0,0 l/m 0 min 0 min 0 W/m 3,2 km/h (1 Bft) 100,00 %
05.10.2023 19:52 15,6 C 14,4 C 10,6 C 82 % 1026,1 hPa 0,0 l/m 0 min 0 min 0 W/m 0,0 km/h (0 Bft) 95,74 %
05.10.2023 19:54 15,5 C 14,4 C 10,6 C 82 % 1026,1 hPa 0,0 l/m 0 min 0 min 0 W/m 0,0 km/h (0 Bft) 97,87 %
05.10.2023 19:56 15,5 C 14,4 C 10,6 C 83 % 1026,2 hPa 0,0 l/m 0 min 0 min 0 W/m 0,0 km/h (0 Bft) 95,65 %
05.10.2023 19:58 15,4 C 14,4 C 10,6 C 83 % 1026,2 hPa 0,0 l/m 0 min 0 min 0 W/m 0,0 km/h (0 Bft) 97,87 %
05.10.2023 20:00 15,4 C 14,4 C 10,6 C 83 % 1026,2 hPa 0,0 l/m 0 min 0 min 0 W/m 3,2 km/h (1 Bft) 97,87 %
05.10.2023 20:02 15,4 C 14,4 C 10,6 C 83 % 1026,1 hPa 0,0 l/m 0 min 0 min 0 W/m 0,0 km/h (0 Bft) 95,74 %
05.10.2023 20:04 15,4 C 14,4 C 10,6 C 83 % 1026,1 hPa 0,0 l/m 0 min 0 min 0 W/m 0,0 km/h (0 Bft) 100,00 %
05.10.2023 20:08 15,3 C 13,9 C 10,6 C 83 % 1026,1 hPa 0,0 l/m 0 min 0 min 0 W/m 0,0 km/h (0 Bft) 96,77 %
05.10.2023 20:10 15,3 C 13,9 C 10,6 C 83 % 1026,1 hPa 0,0 l/m 0 min 0 min 0 W/m 0,0 km/h (0 Bft) 97,22 %
05.10.2023 20:12 15,3 C 13,9 C 10,6 C 83 % 1026,1 hPa 0,0 l/m 0 min 0 min 0 W/m 0,0 km/h (0 Bft) 97,83 %
05.10.2023 20:14 15,2 C 13,9 C 10,0 C 83 % 1026,1 hPa 0,0 l/m 0 min 0 min 0 W/m 0,0 km/h (0 Bft) 97,87 %
05.10.2023 20:16 15,2 C 13,9 C 10,0 C 84 % 1026,1 hPa 0,0 l/m 0 min 0 min 0 W/m 0,0 km/h (0 Bft) 97,87 %
05.10.2023 20:18 15,1 C 13,9 C 10,0 C 84 % 1026,1 hPa 0,0 l/m 0 min 0 min 0 W/m 3,2 km/h (1 Bft) 95,74 %
05.10.2023 20:20 15,1 C 13,9 C 10,0 C 84 % 1026,1 hPa 0,0 l/m 0 min 0 min 0 W/m 3,2 km/h (1 Bft) 97,87 %
05.10.2023 20:22 15,1 C 13,9 C 10,0 C 84 % 1026,1 hPa 0,0 l/m 0 min 0 min 0 W/m 3,2 km/h (1 Bft) 100,00 %
05.10.2023 20:24 15,1 C 13,9 C 10,0 C 84 % 1026,1 hPa 0,0 l/m 0 min 0 min 0 W/m 0,0 km/h (0 Bft) 100,00 %
05.10.2023 20:26 15,0 C 13,9 C 10,0 C 84 % 1026,1 hPa 0,0 l/m 0 min 0 min 0 W/m 3,2 km/h (1 Bft) 100,00 %
05.10.2023 20:28 15,0 C 13,9 C 10,0 C 84 % 1026,1 hPa 0,0 l/m 0 min 0 min 0 W/m 3,2 km/h (1 Bft) 97,87 %
05.10.2023 20:30 14,9 C 13,9 C 10,0 C 84 % 1026,1 hPa 0,0 l/m 0 min 0 min 0 W/m 0,0 km/h (0 Bft) 100,00 %
05.10.2023 20:32 14,9 C 13,9 C 10,0 C 84 % 1026,1 hPa 0,0 l/m 0 min 0 min 0 W/m 0,0 km/h (0 Bft) 100,00 %
05.10.2023 20:34 14,9 C 13,9 C 10,0 C 84 % 1026,1 hPa 0,0 l/m 0 min 0 min 0 W/m 3,2 km/h (1 Bft) 100,00 %
05.10.2023 20:36 14,9 C 13,9 C 10,0 C 84 % 1026,1 hPa 0,0 l/m 0 min 0 min 0 W/m 0,0 km/h (0 Bft) 95,74 %
05.10.2023 20:38 14,8 C 13,9 C 10,0 C 84 % 1026,1 hPa 0,0 l/m 0 min 0 min 0 W/m 0,0 km/h (0 Bft) 95,74 %
05.10.2023 20:40 14,8 C 13,9 C 10,0 C 85 % 1026,1 hPa 0,0 l/m 0 min 0 min 0 W/m 3,2 km/h (1 Bft) 93,62 %
05.10.2023 20:42 14,8 C 13,9 C 10,0 C 85 % 1026,1 hPa 0,0 l/m 0 min 0 min 0 W/m 0,0 km/h (0 Bft) 97,83 %
05.10.2023 20:44 14,8 C 13,9 C 10,0 C 84 % 1026,0 hPa 0,0 l/m 0 min 0 min 0 W/m 0,0 km/h (0 Bft) 97,87 %
05.10.2023 20:46 14,7 C 13,3 C 10,0 C 84 % 1026,0 hPa 0,0 l/m 0 min 0 min 0 W/m 0,0 km/h (0 Bft) 97,87 %
05.10.2023 20:48 14,7 C 13,3 C 10,0 C 85 % 1026,0 hPa 0,0 l/m 0 min 0 min 0 W/m 3,2 km/h (1 Bft) 93,62 %
05.10.2023 20:50 14,7 C 13,3 C 10,0 C 85 % 1026,1 hPa 0,0 l/m 0 min 0 min 0 W/m 3,2 km/h (1 Bft) 93,62 %
05.10.2023 20:52 14,6 C 13,3 C 10,0 C 85 % 1026,1 hPa 0,0 l/m 0 min 0 min 0 W/m 3,2 km/h (1 Bft) 95,74 %
05.10.2023 20:54 14,6 C 13,3 C 10,0 C 85 % 1026,1 hPa 0,0 l/m 0 min 0 min 0 W/m 0,0 km/h (0 Bft) 94,34 %
05.10.2023 20:56 14,6 C 13,3 C 10,0 C 85 % 1026,1 hPa 0,0 l/m 0 min 0 min 0 W/m 0,0 km/h (0 Bft) 95,74 %
05.10.2023 20:58 14,6 C 13,3 C 9,4 C 85 % 1026,1 hPa 0,0 l/m 0 min 0 min 0 W/m 0,0 km/h (0 Bft) 95,12 %
05.10.2023 21:00 14,6 C 13,3 C 9,4 C 85 % 1026,1 hPa 0,0 l/m 0 min 0 min 0 W/m 0,0 km/h (0 Bft) 96,23 %
05.10.2023 21:02 14,5 C 13,3 C 9,4 C 85 % 1026,1 hPa 0,0 l/m 0 min 0 min 0 W/m 0,0 km/h (0 Bft) 91,49 %
05.10.2023 21:04 14,5 C 13,3 C 9,4 C 85 % 1026,1 hPa 0,0 l/m 0 min 0 min 0 W/m 0,0 km/h (0 Bft) 97,56 %
05.10.2023 21:06 14,4 C 13,3 C 9,4 C 85 % 1026,1 hPa 0,0 l/m 0 min 0 min 0 W/m 6,4 km/h (2 Bft) 94,55 %
05.10.2023 21:08 14,4 C 13,3 C 9,4 C 85 % 1026,1 hPa 0,0 l/m 0 min 0 min 0 W/m 6,4 km/h (2 Bft) 95,65 %
05.10.2023 21:10 14,3 C 13,3 C 9,4 C 85 % 1026,0 hPa 0,0 l/m 0 min 0 min 0 W/m 3,2 km/h (1 Bft) 93,62 %
05.10.2023 21:12 14,3 C 13,3 C 9,4 C 85 % 1026,1 hPa 0,0 l/m 0 min 0 min 0 W/m 6,4 km/h (2 Bft) 95,74 %
05.10.2023 21:14 14,3 C 13,3 C 9,4 C 86 % 1026,1 hPa 0,0 l/m 0 min 0 min 0 W/m 3,2 km/h (1 Bft) 93,62 %
05.10.2023 21:16 14,3 C 13,3 C 9,4 C 86 % 1026,1 hPa 0,0 l/m 0 min 0 min 0 W/m 9,7 km/h (2 Bft) 95,74 %
05.10.2023 21:18 14,3 C 13,3 C 9,4 C 86 % 1026,2 hPa 0,0 l/m 0 min 0 min 0 W/m 9,7 km/h (2 Bft) 95,74 %
05.10.2023 21:20 14,3 C 13,3 C 10,0 C 86 % 1026,2 hPa 0,0 l/m 0 min 0 min 0 W/m 9,7 km/h (2 Bft) 93,48 %
05.10.2023 21:22 14,3 C 13,3 C 9,4 C 86 % 1026,2 hPa 0,0 l/m 0 min 0 min 0 W/m 3,2 km/h (1 Bft) 95,74 %
05.10.2023 21:24 14,3 C 13,3 C 9,4 C 86 % 1026,1 hPa 0,0 l/m 0 min 0 min 0 W/m 0,0 km/h (0 Bft) 97,87 %
05.10.2023 21:26 14,3 C 13,3 C 9,4 C 86 % 1026,1 hPa 0,0 l/m 0 min 0 min 0 W/m 0,0 km/h (0 Bft) 95,74 %
05.10.2023 21:28 14,3 C 12,8 C 9,4 C 86 % 1026,2 hPa 0,0 l/m 0 min 0 min 0 W/m 6,4 km/h (2 Bft) 95,74 %
05.10.2023 21:30 14,2 C 12,8 C 9,4 C 86 % 1026,2 hPa 0,0 l/m 0 min 0 min 0 W/m 3,2 km/h (1 Bft) 97,87 %
05.10.2023 21:32 14,2 C 13,3 C 9,4 C 86 % 1026,3 hPa 0,0 l/m 0 min 0 min 0 W/m 3,2 km/h (1 Bft) 97,83 %
05.10.2023 21:34 14,2 C 12,8 C 9,4 C 86 % 1026,3 hPa 0,0 l/m 0 min 0 min 0 W/m 3,2 km/h (1 Bft) 97,87 %
05.10.2023 21:36 14,2 C 12,8 C 9,4 C 86 % 1026,4 hPa 0,0 l/m 0 min 0 min 0 W/m 3,2 km/h (1 Bft) 97,87 %
05.10.2023 21:38 14,1 C 12,8 C 9,4 C 86 % 1026,3 hPa 0,0 l/m 0 min 0 min 0 W/m 0,0 km/h (0 Bft) 98,00 %
05.10.2023 21:40 14,1 C 12,8 C 9,4 C 86 % 1026,3 hPa 0,0 l/m 0 min 0 min 0 W/m 3,2 km/h (1 Bft) 97,87 %
05.10.2023 21:42 14,1 C 12,8 C 9,4 C 86 % 1026,4 hPa 0,0 l/m 0 min 0 min 0 W/m 3,2 km/h (1 Bft) 95,74 %
05.10.2023 21:44 14,1 C 12,8 C 9,4 C 87 % 1026,4 hPa 0,0 l/m 0 min 0 min 0 W/m 3,2 km/h (1 Bft) 97,87 %
05.10.2023 21:46 14,1 C 12,8 C 9,4 C 87 % 1026,4 hPa 0,0 l/m 0 min 0 min 0 W/m 6,4 km/h (2 Bft) 97,83 %
05.10.2023 21:48 14,0 C 12,8 C 9,4 C 87 % 1026,4 hPa 0,0 l/m 0 min 0 min 0 W/m 6,4 km/h (2 Bft) 97,87 %
05.10.2023 21:50 14,0 C 12,8 C 9,4 C 87 % 1026,4 hPa 0,0 l/m 0 min 0 min 0 W/m 3,2 km/h (1 Bft) 95,74 %
05.10.2023 21:54 13,9 C 12,8 C 9,4 C 87 % 1026,3 hPa 0,0 l/m 0 min 0 min 0 W/m 3,2 km/h (1 Bft) 100,00 %
05.10.2023 21:56 13,9 C 12,8 C 9,4 C 87 % 1026,3 hPa 0,0 l/m 0 min 0 min 0 W/m 3,2 km/h (1 Bft) 97,78 %
05.10.2023 21:58 13,9 C 12,8 C 9,4 C 87 % 1026,3 hPa 0,0 l/m 0 min 0 min 0 W/m 3,2 km/h (1 Bft) 97,83 %
05.10.2023 22:00 13,9 C 12,8 C 9,4 C 87 % 1026,3 hPa 0,0 l/m 0 min 0 min 0 W/m 0,0 km/h (0 Bft) 97,87 %
05.10.2023 22:02 13,8 C 12,8 C 9,4 C 87 % 1026,3 hPa 0,0 l/m 0 min 0 min 0 W/m 0,0 km/h (0 Bft) 95,74 %
05.10.2023 22:04 13,8 C 12,8 C 9,4 C 87 % 1026,3 hPa 0,0 l/m 0 min 0 min 0 W/m 3,2 km/h (1 Bft) 97,73 %
05.10.2023 22:06 13,8 C 12,8 C 9,4 C 87 % 1026,4 hPa 0,0 l/m 0 min 0 min 0 W/m 3,2 km/h (1 Bft) 100,00 %
05.10.2023 22:08 13,8 C 12,8 C 9,4 C 87 % 1026,4 hPa 0,0 l/m 0 min 0 min 0 W/m 3,2 km/h (1 Bft) 100,00 %
05.10.2023 22:10 13,7 C 12,8 C 9,4 C 87 % 1026,4 hPa 0,0 l/m 0 min 0 min 0 W/m 3,2 km/h (1 Bft) 100,00 %
05.10.2023 22:12 13,7 C 12,8 C 9,4 C 87 % 1026,3 hPa 0,0 l/m 0 min 0 min 0 W/m 6,4 km/h (2 Bft) 97,87 %
05.10.2023 22:14 13,7 C 12,8 C 9,4 C 88 % 1026,3 hPa 0,0 l/m 0 min 0 min 0 W/m 0,0 km/h (0 Bft) 100,00 %
05.10.2023 22:16 13,7 C 12,8 C 9,4 C 88 % 1026,3 hPa 0,0 l/m 0 min 0 min 0 W/m 3,2 km/h (1 Bft) 100,00 %
05.10.2023 22:18 13,6 C 12,8 C 9,4 C 88 % 1026,3 hPa 0,0 l/m 0 min 0 min 0 W/m 3,2 km/h (1 Bft) 100,00 %
05.10.2023 22:20 13,6 C 12,8 C 9,4 C 88 % 1026,3 hPa 0,0 l/m 0 min 0 min 0 W/m 3,2 km/h (1 Bft) 100,00 %
05.10.2023 22:22 13,6 C 12,2 C 9,4 C 88 % 1026,3 hPa 0,0 l/m 0 min 0 min 0 W/m 3,2 km/h (1 Bft) 100,00 %
05.10.2023 22:24 13,6 C 12,2 C 9,4 C 88 % 1026,3 hPa 0,0 l/m 0 min 0 min 0 W/m 0,0 km/h (0 Bft) 100,00 %
05.10.2023 22:26 13,6 C 12,2 C 9,4 C 88 % 1026,3 hPa 0,0 l/m 0 min 0 min 0 W/m 3,2 km/h (1 Bft) 100,00 %
05.10.2023 22:28 13,6 C 12,2 C 9,4 C 88 % 1026,3 hPa 0,0 l/m 0 min 0 min 0 W/m 3,2 km/h (1 Bft) 100,00 %
05.10.2023 22:30 13,5 C 12,2 C 8,9 C 88 % 1026,3 hPa 0,0 l/m 0 min 0 min 0 W/m 0,0 km/h (0 Bft) 100,00 %
05.10.2023 22:32 13,5 C 12,2 C 8,9 C 88 % 1026,3 hPa 0,0 l/m 0 min 0 min 0 W/m 0,0 km/h (0 Bft) 100,00 %
05.10.2023 22:34 13,4 C 12,2 C 8,9 C 88 % 1026,3 hPa 0,0 l/m 0 min 0 min 0 W/m 3,2 km/h (1 Bft) 97,87 %
05.10.2023 22:36 13,4 C 12,2 C 8,9 C 88 % 1026,3 hPa 0,0 l/m 0 min 0 min 0 W/m 3,2 km/h (1 Bft) 100,00 %
05.10.2023 22:38 13,4 C 12,2 C 8,9 C 88 % 1026,3 hPa 0,0 l/m 0 min 0 min 0 W/m 3,2 km/h (1 Bft) 100,00 %
05.10.2023 22:40 13,4 C 12,2 C 8,9 C 88 % 1026,3 hPa 0,0 l/m 0 min 0 min 0 W/m 3,2 km/h (1 Bft) 95,74 %
05.10.2023 22:42 13,3 C 12,2 C 8,9 C 88 % 1026,3 hPa 0,0 l/m 0 min 0 min 0 W/m 0,0 km/h (0 Bft) 100,00 %
05.10.2023 22:44 13,3 C 12,2 C 8,9 C 88 % 1026,3 hPa 0,0 l/m 0 min 0 min 0 W/m 0,0 km/h (0 Bft) 97,83 %
05.10.2023 22:46 13,3 C 12,2 C 8,9 C 88 % 1026,4 hPa 0,0 l/m 0 min 0 min 0 W/m 3,2 km/h (1 Bft) 97,87 %
05.10.2023 22:48 13,3 C 12,2 C 8,9 C 88 % 1026,4 hPa 0,0 l/m 0 min 0 min 0 W/m 6,4 km/h (2 Bft) 100,00 %
05.10.2023 22:50 13,2 C 12,2 C 8,9 C 88 % 1026,6 hPa 0,0 l/m 0 min 0 min 0 W/m 3,2 km/h (1 Bft) 100,00 %
05.10.2023 22:52 13,2 C 12,2 C 8,9 C 88 % 1026,6 hPa 0,0 l/m 0 min 0 min 0 W/m 0,0 km/h (0 Bft) 100,00 %
05.10.2023 22:54 13,2 C 12,2 C 8,9 C 89 % 1026,6 hPa 0,0 l/m 0 min 0 min 0 W/m 6,4 km/h (2 Bft) 100,00 %
05.10.2023 22:56 13,2 C 12,2 C 8,9 C 89 % 1026,5 hPa 0,0 l/m 0 min 0 min 0 W/m 6,4 km/h (2 Bft) 97,87 %
05.10.2023 22:58 13,1 C 12,2 C 8,9 C 89 % 1026,5 hPa 0,0 l/m 0 min 0 min 0 W/m 3,2 km/h (1 Bft) 94,34 %
05.10.2023 23:00 13,1 C 12,2 C 8,9 C 89 % 1026,5 hPa 0,0 l/m 0 min 0 min 0 W/m 0,0 km/h (0 Bft) 97,87 %
05.10.2023 23:02 13,1 C 12,2 C 8,9 C 89 % 1026,6 hPa 0,0 l/m 0 min 0 min 0 W/m 3,2 km/h (1 Bft) 97,87 %
05.10.2023 23:04 13,1 C 12,2 C 8,9 C 89 % 1026,6 hPa 0,0 l/m 0 min 0 min 0 W/m 0,0 km/h (0 Bft) 97,83 %
05.10.2023 23:08 13,0 C 12,2 C 8,9 C 89 % 1026,7 hPa 0,0 l/m 0 min 0 min 0 W/m 0,0 km/h (0 Bft) 98,06 %
05.10.2023 23:09 13,0 C 12,2 C 8,9 C 89 % 1026,7 hPa 0,0 l/m 0 min 0 min 0 W/m 3,2 km/h (1 Bft) 100,00 %
05.10.2023 23:10 12,9 C 12,2 C 8,9 C 89 % 1026,7 hPa 0,0 l/m 0 min 0 min 0 W/m 3,2 km/h (1 Bft) 100,00 %
05.10.2023 23:14 12,9 C 12,2 C 8,9 C 89 % 1026,7 hPa 0,0 l/m 0 min 0 min 0 W/m 3,2 km/h (1 Bft) 96,61 %
05.10.2023 23:16 12,9 C 11,7 C 8,9 C 89 % 1026,7 hPa 0,0 l/m 0 min 0 min 0 W/m 0,0 km/h (0 Bft) 93,62 %
05.10.2023 23:18 12,9 C 11,7 C 8,9 C 89 % 1026,7 hPa 0,0 l/m 0 min 0 min 0 W/m 0,0 km/h (0 Bft) 95,74 %
05.10.2023 23:20 12,9 C 11,7 C 8,9 C 89 % 1026,7 hPa 0,0 l/m 0 min 0 min 0 W/m 3,2 km/h (1 Bft) 95,74 %
05.10.2023 23:22 12,9 C 11,7 C 8,9 C 89 % 1026,6 hPa 0,0 l/m 0 min 0 min 0 W/m 3,2 km/h (1 Bft) 95,65 %
05.10.2023 23:24 12,8 C 11,7 C 8,9 C 89 % 1026,6 hPa 0,0 l/m 0 min 0 min 0 W/m 3,2 km/h (1 Bft) 95,74 %
05.10.2023 23:26 12,8 C 11,7 C 8,9 C 89 % 1026,7 hPa 0,0 l/m 0 min 0 min 0 W/m 3,2 km/h (1 Bft) 95,74 %
05.10.2023 23:28 12,8 C 11,7 C 8,9 C 89 % 1026,7 hPa 0,0 l/m 0 min 0 min 0 W/m 3,2 km/h (1 Bft) 93,62 %
05.10.2023 23:30 12,8 C 11,7 C 8,9 C 89 % 1026,7 hPa 0,0 l/m 0 min 0 min 0 W/m 0,0 km/h (0 Bft) 93,62 %
05.10.2023 23:32 12,8 C 11,7 C 8,9 C 89 % 1026,6 hPa 0,0 l/m 0 min 0 min 0 W/m 0,0 km/h (0 Bft) 97,87 %
05.10.2023 23:34 12,8 C 11,7 C 8,9 C 89 % 1026,6 hPa 0,0 l/m 0 min 0 min 0 W/m 0,0 km/h (0 Bft) 97,87 %
05.10.2023 23:36 12,7 C 11,7 C 8,9 C 89 % 1026,6 hPa 0,0 l/m 0 min 0 min 0 W/m 3,2 km/h (1 Bft) 97,83 %
05.10.2023 23:38 12,7 C 11,7 C 8,9 C 90 % 1026,6 hPa 0,0 l/m 0 min 0 min 0 W/m 3,2 km/h (1 Bft) 97,87 %
05.10.2023 23:40 12,7 C 11,7 C 8,9 C 90 % 1026,6 hPa 0,0 l/m 0 min 0 min 0 W/m 3,2 km/h (1 Bft) 97,87 %
05.10.2023 23:42 12,7 C 11,7 C 8,9 C 90 % 1026,5 hPa 0,0 l/m 0 min 0 min 0 W/m 6,4 km/h (2 Bft) 100,00 %
05.10.2023 23:44 12,7 C 11,7 C 8,9 C 90 % 1026,6 hPa 0,0 l/m 0 min 0 min 0 W/m 6,4 km/h (2 Bft) 100,00 %
05.10.2023 23:46 12,6 C 11,7 C 8,9 C 90 % 1026,5 hPa 0,0 l/m 0 min 0 min 0 W/m 9,7 km/h (2 Bft) 100,00 %
05.10.2023 23:48 12,6 C 11,7 C 8,9 C 90 % 1026,5 hPa 0,0 l/m 0 min 0 min 0 W/m 6,4 km/h (2 Bft) 100,00 %
05.10.2023 23:50 12,6 C 11,7 C 8,9 C 90 % 1026,5 hPa 0,0 l/m 0 min 0 min 0 W/m 6,4 km/h (2 Bft) 100,00 %
05.10.2023 23:52 12,6 C 11,7 C 8,9 C 90 % 1026,5 hPa 0,0 l/m 0 min 0 min 0 W/m 3,2 km/h (1 Bft) 100,00 %
05.10.2023 23:54 12,6 C 11,7 C 8,9 C 90 % 1026,5 hPa 0,0 l/m 0 min 0 min 0 W/m 3,2 km/h (1 Bft) 100,00 %
05.10.2023 23:56 12,6 C 11,7 C 8,9 C 90 % 1026,4 hPa 0,0 l/m 0 min 0 min 0 W/m 3,2 km/h (1 Bft) 100,00 %
05.10.2023 23:58 12,6 C 11,7 C 8,9 C 90 % 1026,4 hPa 0,0 l/m 0 min 0 min 0 W/m 6,4 km/h (2 Bft) 100,00 %
_ Min-Zeit 07:16 05:56 06:50 16:46 07:42 - - - - 05:32 03:42
Minimum _ 12,4 C 11,7 C 8,3 C 71 % 1023,7 hPa - - - - 0,0 km/h (0 Bft) 70,21 %
_ Max-Zeit 16:40 14:18 14:58 08:28 23:08 00:00 14:04 00:00 14:30 07:42 00:00
Maximum _ 18,5 C 18,9 C 13,9 C 92 % 1026,7 hPa 0,0 l/m 4 min 0 min 661 W/m 25,7 km/h
S (4 Bft)
100,00 %
Durchschnitt _ 14,7 C 14,1 C 10,6 C 85 % 1025,3 hPa #0,0 l/m #3:12 h #0 min. 183 W/m 8,4 km/h (2 Bft) 97,36 %
© 2023 W. Hausmann